| time (UTC) | temp F | wind direction | speed MPH | gust MPH | rain 1hr in | rain 24hr in | rain mn in | humidity % | barometer mb |
| 20260831210826 | 97 | 219 | 1.0 | 3.0 | 0.00 | 0.00 | 0.00 | 54 | 1005.2 |
| 20260831210726 | 97 | 130 | 0.0 | 3.0 | 0.00 | 0.00 | 0.00 | 53 | 1005.1 |
| 20260831210622 | 97 | 130 | 0.0 | 3.0 | 0.00 | 0.00 | 0.00 | 53 | 1005.2 |
| 20260831210524 | 96 | 210 | 0.0 | 3.0 | 0.00 | 0.00 | 0.00 | 53 | 1005.1 |
| 20260831210420 | 96 | 210 | 0.0 | 3.0 | 0.00 | 0.00 | 0.00 | 53 | 1005.2 |
| 20260831210315 | 96 | 210 | 1.0 | 3.0 | 0.00 | 0.00 | 0.00 | 53 | 1005.2 |
| 20260831210210 | 96 | 210 | 1.0 | 3.0 | 0.00 | 0.00 | 0.00 | 53 | 1005.2 |
| 20260831210105 | 97 | 223 | 1.0 | 3.0 | 0.00 | 0.00 | 0.00 | 53 | 1005.3 |
| 20260831210004 | 97 | 251 | 1.0 | 3.0 | 0.00 | 0.00 | 0.00 | 53 | 1005.3 |
| 20260831205902 | 97 | 251 | 1.0 | 3.0 | 0.00 | 0.00 | 0.00 | 53 | 1005.2 |
| 20260831205802 | 97 | 251 | 2.0 | 3.0 | 0.00 | 0.00 | 0.00 | 53 | 1005.2 |
| 20260831205702 | 97 | 203 | 1.0 | 3.0 | 0.00 | 0.00 | 0.00 | 53 | 1005.3 |
| 20260831205604 | 97 | 203 | 1.0 | 3.0 | 0.00 | 0.00 | 0.00 | 53 | 1005.2 |
| 20260831205505 | 97 | 203 | 1.0 | 3.0 | 0.00 | 0.00 | 0.00 | 53 | 1005.2 |
| 20260831205403 | 97 | 202 | 1.0 | 3.0 | 0.00 | 0.00 | 0.00 | 53 | 1005.3 |
| 20260831205305 | 97 | 224 | 2.0 | 3.0 | 0.00 | 0.00 | 0.00 | 52 | 1005.2 |
| 20260831205204 | 97 | 182 | 2.0 | 3.0 | 0.00 | 0.00 | 0.00 | 52 | 1005.3 |
| 20260831205105 | 97 | 165 | 1.0 | 3.0 | 0.00 | 0.00 | 0.00 | 52 | 1005.3 |
| 20260831205003 | 97 | 172 | 1.0 | 3.0 | 0.00 | 0.00 | 0.00 | 52 | 1005.4 |
| 20260831204903 | 97 | 172 | 1.0 | 3.0 | 0.00 | 0.00 | 0.00 | 52 | 1005.4 |
| 20260831204804 | 97 | 173 | 1.0 | 3.0 | 0.00 | 0.00 | 0.00 | 52 | 1005.5 |
| 20260831204703 | 97 | 172 | 1.0 | 3.0 | 0.00 | 0.00 | 0.00 | 52 | 1005.5 |
| 20260831204605 | 97 | 125 | 1.0 | 3.0 | 0.00 | 0.00 | 0.00 | 53 | 1005.5 |
| 20260831204508 | 97 | 192 | 1.0 | 3.0 | 0.00 | 0.00 | 0.00 | 53 | 1005.5 |
| 20260831204403 | 97 | 99 | 1.0 | 3.0 | 0.00 | 0.00 | 0.00 | 53 | 1005.6 |
| 20260831204302 | 97 | 99 | 1.0 | 4.0 | 0.00 | 0.00 | 0.00 | 53 | 1005.5 |
| 20260831204204 | 97 | 72 | 2.0 | 4.0 | 0.00 | 0.00 | 0.00 | 53 | 1005.6 |
| 20260831204104 | 97 | 121 | 2.0 | 4.0 | 0.00 | 0.00 | 0.00 | 53 | 1005.6 |
| 20260831204004 | 97 | 113 | 1.0 | 4.0 | 0.00 | 0.00 | 0.00 | 53 | 1005.7 |
| 20260831203903 | 97 | 99 | 1.0 | 4.0 | 0.00 | 0.00 | 0.00 | 53 | 1005.6 |
| 20260831203802 | 97 | 99 | 1.0 | 4.0 | 0.00 | 0.00 | 0.00 | 55 | 1005.7 |
| 20260831203704 | 97 | 274 | 1.0 | 4.0 | 0.00 | 0.00 | 0.00 | 55 | 1005.7 |
| 20260831203604 | 97 | 217 | 1.0 | 4.0 | 0.00 | 0.00 | 0.00 | 55 | 1005.7 |
| 20260831203503 | 97 | 0 | 1.0 | 4.0 | 0.00 | 0.00 | 0.00 | 54 | 1005.7 |
| 20260831203403 | 97 | 0 | 1.0 | 4.0 | 0.00 | 0.00 | 0.00 | 54 | 1005.7 |
| 20260831203302 | 97 | 196 | 1.0 | 2.0 | 0.00 | 0.00 | 0.00 | 56 | 1005.7 |
| 20260831203202 | 96 | 162 | 0.0 | 2.0 | 0.00 | 0.00 | 0.00 | 54 | 1005.7 |
| 20260831203103 | 96 | 162 | 1.0 | 2.0 | 0.00 | 0.00 | 0.00 | 54 | 1005.7 |
| 20260831203002 | 96 | 161 | 1.0 | 2.0 | 0.00 | 0.00 | 0.00 | 55 | 1005.8 |
| 20260831202902 | 96 | 319 | 1.0 | 2.0 | 0.00 | 0.00 | 0.00 | 55 | 1005.7 |
| 20260831202802 | 96 | 0 | 1.0 | 2.0 | 0.00 | 0.00 | 0.00 | 55 | 1005.8 |
| 20260831202704 | 96 | 0 | 1.0 | 2.0 | 0.00 | 0.00 | 0.00 | 55 | 1005.8 |
| 20260831202603 | 96 | 8 | 1.0 | 2.0 | 0.00 | 0.00 | 0.00 | 55 | 1005.9 |
| 20260831202504 | 96 | 18 | 1.0 | 3.0 | 0.00 | 0.00 | 0.00 | 55 | 1005.9 |
| 20260831202402 | 96 | 3 | 1.0 | 3.0 | 0.00 | 0.00 | 0.00 | 55 | 1005.9 |
| 20260831202305 | 96 | 123 | 0.0 | 3.0 | 0.00 | 0.00 | 0.00 | 54 | 1005.9 |
| 20260831202203 | 96 | 271 | 1.0 | 3.0 | 0.00 | 0.00 | 0.00 | 54 | 1006.0 |
| 20260831202102 | 96 | 271 | 1.0 | 3.0 | 0.00 | 0.00 | 0.00 | 54 | 1005.9 |
| 20260831202003 | 96 | 279 | 2.0 | 3.0 | 0.00 | 0.00 | 0.00 | 54 | 1005.9 |
| 20260831201902 | 96 | 279 | 1.0 | 3.0 | 0.00 | 0.00 | 0.00 | 54 | 1006.0 |
| 20260831201802 | 96 | 278 | 1.0 | 3.0 | 0.00 | 0.00 | 0.00 | 53 | 1006.0 |
| 20260831201702 | 97 | 164 | 1.0 | 3.0 | 0.00 | 0.00 | 0.00 | 53 | 1006.0 |
| 20260831201604 | 97 | 164 | 1.0 | 3.0 | 0.00 | 0.00 | 0.00 | 53 | 1006.0 |
| 20260831201503 | 97 | 159 | 1.0 | 3.0 | 0.00 | 0.00 | 0.00 | 53 | 1005.9 |
| 20260831201402 | 97 | 247 | 1.0 | 3.0 | 0.00 | 0.00 | 0.00 | 53 | 1006.0 |
| 20260831201303 | 97 | 265 | 1.0 | 3.0 | 0.00 | 0.00 | 0.00 | 53 | 1005.9 |
| 20260831201202 | 97 | 327 | 1.0 | 3.0 | 0.00 | 0.00 | 0.00 | 52 | 1006.1 |
| 20260831201103 | 97 | 286 | 2.0 | 3.0 | 0.00 | 0.00 | 0.00 | 52 | 1006.1 |
| 20260831201003 | 98 | 179 | 1.0 | 3.0 | 0.00 | 0.00 | 0.00 | 52 | 1006.0 |
| 20260831200903 | 98 | 258 | 1.0 | 3.0 | 0.00 | 0.00 | 0.00 | 52 | 1006.0 |
| 20260831200802 | 98 | 155 | 1.0 | 3.0 | 0.00 | 0.00 | 0.00 | 52 | 1006.1 |
| 20260831200702 | 98 | 138 | 1.0 | 3.0 | 0.00 | 0.00 | 0.00 | 52 | 1006.1 |
| 20260831200606 | 98 | 147 | 1.0 | 3.0 | 0.00 | 0.00 | 0.00 | 52 | 1006.0 |
| 20260831200500 | 98 | 117 | 1.0 | 3.0 | 0.00 | 0.00 | 0.00 | 52 | 1006.0 |
| 20260831200400 | 98 | 116 | 1.0 | 3.0 | 0.00 | 0.00 | 0.00 | 53 | 1006.1 |
| 20260831200252 | 98 | 116 | 2.0 | 3.0 | 0.00 | 0.00 | 0.00 | 52 | 1006.0 |
| 20260831200152 | 98 | 117 | 2.0 | 3.0 | 0.00 | 0.00 | 0.00 | 52 | 1006.1 |
| 20260831200053 | 98 | 324 | 1.0 | 3.0 | 0.00 | 0.00 | 0.00 | 53 | 1006.1 |
| 20260831195946 | 98 | 312 | 0.0 | 3.0 | 0.00 | 0.00 | 0.00 | 53 | 1006.1 |
| 20260831195848 | 98 | 312 | 0.0 | 3.0 | 0.00 | 0.00 | 0.00 | 55 | 1006.2 |
| 20260831195744 | 97 | 7 | 0.0 | 3.0 | 0.00 | 0.00 | 0.00 | 55 | 1006.2 |
| 20260831195643 | 97 | 0 | 1.0 | 3.0 | 0.00 | 0.00 | 0.00 | 55 | 1006.2 |
| 20260831195540 | 96 | 8 | 1.0 | 3.0 | 0.00 | 0.00 | 0.00 | 55 | 1006.3 |
| 20260831195441 | 96 | 0 | 1.0 | 5.0 | 0.00 | 0.00 | 0.00 | 55 | 1006.3 |
| 20260831195335 | 95 | 195 | 1.0 | 5.0 | 0.00 | 0.00 | 0.00 | 55 | 1006.3 |
| 20260831195230 | 95 | 196 | 1.0 | 5.0 | 0.00 | 0.00 | 0.00 | 55 | 1006.3 |
| 20260831195132 | 95 | 293 | 1.0 | 5.0 | 0.00 | 0.00 | 0.00 | 55 | 1006.3 |
| 20260831195033 | 95 | 306 | 1.0 | 5.0 | 0.00 | 0.00 | 0.00 | 55 | 1006.3 |
| 20260831194924 | 95 | 305 | 2.0 | 5.0 | 0.00 | 0.00 | 0.00 | 54 | 1006.3 |
| 20260831194824 | 95 | 305 | 2.0 | 5.0 | 0.00 | 0.00 | 0.00 | 54 | 1006.3 |
| 20260831194723 | 95 | 312 | 2.0 | 5.0 | 0.00 | 0.00 | 0.00 | 54 | 1006.4 |
| 20260831194624 | 95 | 338 | 2.0 | 5.0 | 0.00 | 0.00 | 0.00 | 54 | 1006.4 |
| 20260831194524 | 96 | 338 | 2.0 | 5.0 | 0.00 | 0.00 | 0.00 | 54 | 1006.5 |
| 20260831194424 | 96 | 8 | 2.0 | 3.0 | 0.00 | 0.00 | 0.00 | 55 | 1006.5 |
| 20260831194322 | 96 | 10 | 2.0 | 2.0 | 0.00 | 0.00 | 0.00 | 54 | 1006.6 |
| 20260831194224 | 96 | 41 | 2.0 | 2.0 | 0.00 | 0.00 | 0.00 | 54 | 1006.5 |
| 20260831194122 | 96 | 96 | 1.0 | 2.0 | 0.00 | 0.00 | 0.00 | 53 | 1006.5 |
| 20260831194029 | 96 | 96 | 0.0 | 2.0 | 0.00 | 0.00 | 0.00 | 53 | 1006.5 |
| 20260831193923 | 96 | 96 | 0.0 | 2.0 | 0.00 | 0.00 | 0.00 | 53 | 1006.6 |
| 20260831193824 | 96 | 96 | 1.0 | 2.0 | 0.00 | 0.00 | 0.00 | 54 | 1006.6 |
| 20260831193723 | 96 | 157 | 0.0 | 2.0 | 0.00 | 0.00 | 0.00 | 53 | 1006.6 |
| 20260831193624 | 96 | 206 | 0.0 | 2.0 | 0.00 | 0.00 | 0.00 | 53 | 1006.6 |
| 20260831193523 | 96 | 206 | 1.0 | 3.0 | 0.00 | 0.00 | 0.00 | 53 | 1006.6 |
| 20260831193423 | 97 | 206 | 1.0 | 3.0 | 0.00 | 0.00 | 0.00 | 53 | 1006.6 |
| 20260831193324 | 97 | 192 | 1.0 | 3.0 | 0.00 | 0.00 | 0.00 | 54 | 1006.6 |
| 20260831193222 | 96 | 130 | 0.0 | 3.0 | 0.00 | 0.00 | 0.00 | 54 | 1006.7 |
| 20260831193124 | 96 | 39 | 0.0 | 3.0 | 0.00 | 0.00 | 0.00 | 56 | 1006.6 |
| 20260831193023 | 96 | 39 | 0.0 | 3.0 | 0.00 | 0.00 | 0.00 | 56 | 1006.6 |
| 20260831192923 | 95 | 39 | 0.0 | 3.0 | 0.00 | 0.00 | 0.00 | 55 | 1006.6 |
| 20260831192824 | 95 | 39 | 1.0 | 3.0 | 0.00 | 0.00 | 0.00 | 55 | 1006.6 |
| 20260831192724 | 95 | 38 | 2.0 | 3.0 | 0.00 | 0.00 | 0.00 | 56 | 1006.6 |
| 20260831192623 | 95 | 307 | 2.0 | 3.0 | 0.00 | 0.00 | 0.00 | 56 | 1006.6 |
| 20260831192524 | 95 | 24 | 1.0 | 3.0 | 0.00 | 0.00 | 0.00 | 55 | 1006.7 |
| 20260831192423 | 95 | 34 | 0.0 | 3.0 | 0.00 | 0.00 | 0.00 | 55 | 1006.8 |
| 20260831192323 | 95 | 93 | 0.0 | 3.0 | 0.00 | 0.00 | 0.00 | 55 | 1006.7 |
| 20260831192224 | 96 | 93 | 1.0 | 3.0 | 0.00 | 0.00 | 0.00 | 55 | 1006.9 |
| 20260831192124 | 96 | 93 | 1.0 | 3.0 | 0.00 | 0.00 | 0.00 | 55 | 1006.8 |
| 20260831192024 | 96 | 93 | 2.0 | 3.0 | 0.00 | 0.00 | 0.00 | 55 | 1006.8 |
| 20260831191922 | 96 | 212 | 1.0 | 2.0 | 0.00 | 0.00 | 0.00 | 54 | 1006.9 |
| 20260831191822 | 97 | 224 | 0.0 | 2.0 | 0.00 | 0.00 | 0.00 | 54 | 1006.8 |
| 20260831191724 | 97 | 224 | 0.0 | 2.0 | 0.00 | 0.00 | 0.00 | 54 | 1006.9 |
| 20260831191622 | 97 | 223 | 0.0 | 2.0 | 0.00 | 0.00 | 0.00 | 54 | 1006.9 |
| 20260831191524 | 96 | 221 | 0.0 | 2.0 | 0.00 | 0.00 | 0.00 | 55 | 1006.9 |
| 20260831191415 | 96 | 262 | 0.0 | 3.0 | 0.00 | 0.00 | 0.00 | 54 | 1006.9 |
| 20260831191317 | 96 | 264 | 1.0 | 3.0 | 0.00 | 0.00 | 0.00 | 54 | 1006.9 |
| 20260831191215 | 96 | 266 | 1.0 | 3.0 | 0.00 | 0.00 | 0.00 | 55 | 1006.9 |
| 20260831191117 | 96 | 278 | 0.0 | 3.0 | 0.00 | 0.00 | 0.00 | 55 | 1006.9 |
| 20260831191019 | 96 | 278 | 0.0 | 3.0 | 0.00 | 0.00 | 0.00 | 55 | 1007.0 |
| 20260831190914 | 96 | 278 | 0.0 | 3.0 | 0.00 | 0.00 | 0.00 | 56 | 1006.9 |
| 20260831190804 | 95 | 274 | 0.0 | 3.0 | 0.00 | 0.00 | 0.00 | 55 | 1007.0 |
| 20260831190705 | 95 | 274 | 1.0 | 3.0 | 0.00 | 0.00 | 0.00 | 54 | 1007.0 |
| 20260831190605 | 96 | 259 | 1.0 | 3.0 | 0.00 | 0.00 | 0.00 | 54 | 1006.9 |
| 20260831190503 | 96 | 292 | 1.0 | 3.0 | 0.00 | 0.00 | 0.00 | 55 | 1006.9 |
| 20260831190404 | 96 | 264 | 1.0 | 3.0 | 0.00 | 0.00 | 0.00 | 55 | 1007.0 |
| 20260831190302 | 96 | 207 | 0.0 | 3.0 | 0.00 | 0.00 | 0.00 | 55 | 1007.0 |
| 20260831190204 | 96 | 202 | 0.0 | 3.0 | 0.00 | 0.00 | 0.00 | 55 | 1006.9 |
| 20260831190003 | 95 | 202 | 1.0 | 3.0 | 0.00 | 0.00 | 0.00 | 54 | 1007.0 |
| 20260831185904 | 96 | 202 | 2.0 | 3.0 | 0.00 | 0.00 | 0.00 | 54 | 1007.0 |
| 20260831185802 | 96 | 107 | 1.0 | 2.0 | 0.00 | 0.00 | 0.00 | 56 | 1007.0 |
| 20260831185704 | 96 | 4 | 1.0 | 2.0 | 0.00 | 0.00 | 0.00 | 55 | 1007.1 |
| 20260831185603 | 96 | 4 | 1.0 | 2.0 | 0.00 | 0.00 | 0.00 | 55 | 1007.1 |
| 20260831185503 | 96 | 0 | 1.0 | 2.0 | 0.00 | 0.00 | 0.00 | 55 | 1007.1 |
| 20260831185402 | 96 | 0 | 1.0 | 2.0 | 0.00 | 0.00 | 0.00 | 55 | 1007.2 |
| 20260831185306 | 96 | 0 | 1.0 | 2.0 | 0.00 | 0.00 | 0.00 | 55 | 1007.2 |
| 20260831185201 | 96 | 7 | 1.0 | 2.0 | 0.00 | 0.00 | 0.00 | 54 | 1007.2 |
| 20260831185103 | 97 | 302 | 1.0 | 2.0 | 0.00 | 0.00 | 0.00 | 54 | 1007.2 |
| 20260831185004 | 97 | 302 | 1.0 | 2.0 | 0.00 | 0.00 | 0.00 | 55 | 1007.3 |
| 20260831184904 | 97 | 302 | 1.0 | 2.0 | 0.00 | 0.00 | 0.00 | 55 | 1007.3 |
| 20260831184804 | 97 | 302 | 1.0 | 2.0 | 0.00 | 0.00 | 0.00 | 55 | 1007.3 |
| 20260831184704 | 97 | 302 | 1.0 | 2.0 | 0.00 | 0.00 | 0.00 | 55 | 1007.3 |
| 20260831184603 | 97 | 158 | 1.0 | 4.0 | 0.00 | 0.00 | 0.00 | 56 | 1007.3 |
| 20260831184502 | 96 | 176 | 0.0 | 4.0 | 0.00 | 0.00 | 0.00 | 55 | 1007.3 |
| 20260831184403 | 96 | 173 | 0.0 | 4.0 | 0.00 | 0.00 | 0.00 | 55 | 1007.3 |
| 20260831184256 | 96 | 173 | 0.0 | 4.0 | 0.00 | 0.00 | 0.00 | 55 | 1007.4 |
| 20260831184151 | 96 | 68 | 1.0 | 4.0 | 0.00 | 0.00 | 0.00 | 55 | 1007.4 |
| 20260831184053 | 96 | 68 | 1.0 | 4.0 | 0.00 | 0.00 | 0.00 | 55 | 1007.4 |
| 20260831183951 | 96 | 71 | 1.0 | 4.0 | 0.00 | 0.00 | 0.00 | 56 | 1007.4 |
| 20260831183850 | 96 | 90 | 2.0 | 4.0 | 0.00 | 0.00 | 0.00 | 56 | 1007.5 |
| 20260831183740 | 96 | 8 | 1.0 | 4.0 | 0.00 | 0.00 | 0.00 | 56 | 1007.5 |
| 20260831183639 | 96 | 312 | 0.0 | 2.0 | 0.00 | 0.00 | 0.00 | 56 | 1007.5 |
| 20260831183531 | 96 | 312 | 1.0 | 2.0 | 0.00 | 0.00 | 0.00 | 57 | 1007.5 |
| 20260831183433 | 96 | 312 | 1.0 | 2.0 | 0.00 | 0.00 | 0.00 | 56 | 1007.5 |
| 20260831183331 | 96 | 259 | 1.0 | 2.0 | 0.00 | 0.00 | 0.00 | 57 | 1007.5 |
| 20260831183233 | 95 | 330 | 0.0 | 2.0 | 0.00 | 0.00 | 0.00 | 59 | 1007.5 |
| 20260831183133 | 95 | 310 | 0.0 | 2.0 | 0.00 | 0.00 | 0.00 | 60 | 1007.5 |
| 20260831183036 | 94 | 307 | 0.0 | 2.0 | 0.00 | 0.00 | 0.00 | 60 | 1007.5 |
| 20260831182933 | 94 | 306 | 0.0 | 2.0 | 0.00 | 0.00 | 0.00 | 60 | 1007.5 |
| 20260831182831 | 94 | 354 | 0.0 | 2.0 | 0.00 | 0.00 | 0.00 | 61 | 1007.5 |
| 20260831182733 | 94 | 354 | 0.0 | 2.0 | 0.00 | 0.00 | 0.00 | 61 | 1007.6 |
| 20260831182633 | 94 | 0 | 1.0 | 2.0 | 0.00 | 0.00 | 0.00 | 60 | 1007.5 |
| 20260831182533 | 94 | 0 | 1.0 | 2.0 | 0.00 | 0.00 | 0.00 | 60 | 1007.5 |
| 20260831182433 | 94 | 0 | 1.0 | 2.0 | 0.00 | 0.00 | 0.00 | 62 | 1007.5 |
| 20260831182331 | 94 | 0 | 1.0 | 2.0 | 0.00 | 0.00 | 0.00 | 62 | 1007.5 |
| 20260831182232 | 93 | 104 | 0.0 | 2.0 | 0.00 | 0.00 | 0.00 | 61 | 1007.5 |
| 20260831182129 | 93 | 104 | 0.0 | 2.0 | 0.00 | 0.00 | 0.00 | 62 | 1007.6 |
| 20260831182024 | 92 | 102 | 1.0 | 2.0 | 0.00 | 0.00 | 0.00 | 62 | 1007.6 |
| 20260831181922 | 92 | 103 | 0.0 | 3.0 | 0.00 | 0.00 | 0.00 | 62 | 1007.5 |
| 20260831181823 | 92 | 259 | 0.0 | 3.0 | 0.00 | 0.00 | 0.00 | 62 | 1007.6 |
| 20260831181720 | 92 | 259 | 0.0 | 3.0 | 0.00 | 0.00 | 0.00 | 61 | 1007.7 |
| 20260831181620 | 92 | 259 | 0.0 | 3.0 | 0.00 | 0.00 | 0.00 | 61 | 1007.6 |
| 20260831181521 | 92 | 259 | 0.0 | 3.0 | 0.00 | 0.00 | 0.00 | 62 | 1007.6 |
| 20260831181422 | 92 | 259 | 0.0 | 3.0 | 0.00 | 0.00 | 0.00 | 62 | 1007.6 |
| 20260831181321 | 92 | 306 | 0.0 | 3.0 | 0.00 | 0.00 | 0.00 | 62 | 1007.6 |
| 20260831181220 | 93 | 306 | 0.0 | 3.0 | 0.00 | 0.00 | 0.00 | 62 | 1007.7 |
| 20260831181122 | 93 | 306 | 1.0 | 3.0 | 0.00 | 0.00 | 0.00 | 61 | 1007.6 |
| 20260831181021 | 93 | 306 | 2.0 | 3.0 | 0.00 | 0.00 | 0.00 | 61 | 1007.6 |
| 20260831180921 | 93 | 259 | 1.0 | 2.0 | 0.00 | 0.00 | 0.00 | 61 | 1007.7 |
| 20260831180820 | 94 | 259 | 2.0 | 2.0 | 0.00 | 0.00 | 0.00 | 61 | 1007.7 |
| 20260831180723 | 94 | 259 | 1.0 | 2.0 | 0.00 | 0.00 | 0.00 | 59 | 1007.7 |
| 20260831180620 | 94 | 258 | 0.0 | 2.0 | 0.00 | 0.00 | 0.00 | 59 | 1007.8 |
| 20260831180522 | 94 | 258 | 0.0 | 2.0 | 0.00 | 0.00 | 0.00 | 59 | 1007.7 |
| 20260831180421 | 94 | 264 | 0.0 | 2.0 | 0.00 | 0.00 | 0.00 | 60 | 1007.7 |
| 20260831180322 | 94 | 142 | 0.0 | 2.0 | 0.00 | 0.00 | 0.00 | 59 | 1007.8 |
| 20260831180218 | 94 | 141 | 1.0 | 2.0 | 0.00 | 0.00 | 0.00 | 59 | 1007.8 |
| 20260831180120 | 94 | 137 | 0.0 | 2.0 | 0.00 | 0.00 | 0.00 | 60 | 1007.8 |
| 20260831180016 | 95 | 135 | 0.0 | 2.0 | 0.00 | 0.00 | 0.00 | 60 | 1007.8 |
| 20260831175906 | 95 | 135 | 1.0 | 4.0 | 0.00 | 0.00 | 0.00 | 60 | 1007.8 |
| 20260831175804 | 95 | 135 | 1.0 | 4.0 | 0.00 | 0.00 | 0.00 | 60 | 1007.8 |
| 20260831175705 | 95 | 157 | 1.0 | 4.0 | 0.00 | 0.00 | 0.00 | 60 | 1007.8 |
| 20260831175603 | 95 | 286 | 0.0 | 4.0 | 0.00 | 0.00 | 0.00 | 60 | 1007.8 |
| 20260831175503 | 95 | 300 | 1.0 | 4.0 | 0.00 | 0.00 | 0.00 | 60 | 1007.8 |
| 20260831175402 | 95 | 134 | 1.0 | 4.0 | 0.00 | 0.00 | 0.00 | 60 | 1007.9 |
| 20260831175306 | 95 | 72 | 1.0 | 4.0 | 0.00 | 0.00 | 0.00 | 60 | 1007.8 |
| 20260831175202 | 95 | 309 | 1.0 | 4.0 | 0.00 | 0.00 | 0.00 | 60 | 1007.8 |
| 20260831175102 | 95 | 293 | 2.0 | 4.0 | 0.00 | 0.00 | 0.00 | 60 | 1007.7 |
| 20260831175005 | 95 | 293 | 2.0 | 4.0 | 0.00 | 0.00 | 0.00 | 60 | 1007.8 |
| 20260831174903 | 95 | 224 | 1.0 | 4.0 | 0.00 | 0.00 | 0.00 | 60 | 1008.0 |
| 20260831174803 | 95 | 206 | 1.0 | 4.0 | 0.00 | 0.00 | 0.00 | 60 | 1007.9 |
| 20260831174702 | 95 | 206 | 1.0 | 4.0 | 0.00 | 0.00 | 0.00 | 58 | 1007.9 |
| 20260831174603 | 95 | 140 | 0.0 | 4.0 | 0.00 | 0.00 | 0.00 | 58 | 1007.9 |
| 20260831174502 | 95 | 137 | 1.0 | 4.0 | 0.00 | 0.00 | 0.00 | 58 | 1007.9 |
| 20260831174406 | 95 | 138 | 1.0 | 4.0 | 0.00 | 0.00 | 0.00 | 59 | 1008.0 |
| 20260831174304 | 96 | 41 | 0.0 | 4.0 | 0.00 | 0.00 | 0.00 | 58 | 1008.0 |
| 20260831174202 | 96 | 0 | 2.0 | 4.0 | 0.00 | 0.00 | 0.00 | 58 | 1008.0 |
| 20260831174105 | 96 | 0 | 2.0 | 4.0 | 0.00 | 0.00 | 0.00 | 57 | 1008.0 |
| 20260831174003 | 96 | 245 | 0.0 | 2.0 | 0.00 | 0.00 | 0.00 | 59 | 1008.0 |
| 20260831173903 | 96 | 241 | 0.0 | 2.0 | 0.00 | 0.00 | 0.00 | 59 | 1008.0 |
| 20260831173803 | 95 | 240 | 0.0 | 2.0 | 0.00 | 0.00 | 0.00 | 59 | 1008.0 |
| 20260831173703 | 95 | 238 | 0.0 | 2.0 | 0.00 | 0.00 | 0.00 | 60 | 1008.2 |
| 20260831173603 | 94 | 247 | 0.0 | 2.0 | 0.00 | 0.00 | 0.00 | 60 | 1008.0 |
| 20260831173505 | 94 | 247 | 0.0 | 2.0 | 0.00 | 0.00 | 0.00 | 60 | 1008.1 |
| 20260831173405 | 94 | 247 | 0.0 | 2.0 | 0.00 | 0.00 | 0.00 | 60 | 1008.2 |
| 20260831173303 | 94 | 247 | 1.0 | 2.0 | 0.00 | 0.00 | 0.00 | 60 | 1008.1 |
| 20260831173205 | 94 | 241 | 0.0 | 2.0 | 0.00 | 0.00 | 0.00 | 60 | 1008.1 |
| 20260831173104 | 93 | 243 | 0.0 | 2.0 | 0.00 | 0.00 | 0.00 | 61 | 1008.1 |
| 20260831173006 | 93 | 243 | 0.0 | 2.0 | 0.00 | 0.00 | 0.00 | 61 | 1008.2 |
| 20260831172905 | 93 | 243 | 0.0 | 4.0 | 0.00 | 0.00 | 0.00 | 61 | 1008.2 |
| 20260831172802 | 93 | 243 | 0.0 | 4.0 | 0.00 | 0.00 | 0.00 | 61 | 1008.2 |
| 20260831172703 | 92 | 247 | 0.0 | 4.0 | 0.00 | 0.00 | 0.00 | 61 | 1008.2 |
| 20260831172604 | 92 | 247 | 0.0 | 4.0 | 0.00 | 0.00 | 0.00 | 61 | 1008.2 |
| 20260831172504 | 93 | 245 | 0.0 | 4.0 | 0.00 | 0.00 | 0.00 | 61 | 1008.2 |
| 20260831172403 | 93 | 245 | 0.0 | 4.0 | 0.00 | 0.00 | 0.00 | 61 | 1008.3 |
| 20260831172306 | 94 | 255 | 1.0 | 4.0 | 0.00 | 0.00 | 0.00 | 61 | 1008.3 |
| 20260831172205 | 94 | 255 | 1.0 | 4.0 | 0.00 | 0.00 | 0.00 | 61 | 1008.2 |
| 20260831172105 | 94 | 104 | 1.0 | 4.0 | 0.00 | 0.00 | 0.00 | 61 | 1008.2 |
| 20260831172004 | 94 | 337 | 1.0 | 4.0 | 0.00 | 0.00 | 0.00 | 60 | 1008.2 |
| 20260831171902 | 94 | 274 | 1.0 | 3.0 | 0.00 | 0.00 | 0.00 | 60 | 1008.2 |
| 20260831171802 | 94 | 274 | 0.0 | 3.0 | 0.00 | 0.00 | 0.00 | 60 | 1008.2 |
| 20260831171702 | 94 | 274 | 0.0 | 3.0 | 0.00 | 0.00 | 0.00 | 60 | 1008.2 |
| 20260831171603 | 94 | 281 | 0.0 | 3.0 | 0.00 | 0.00 | 0.00 | 61 | 1008.2 |
| 20260831171503 | 94 | 289 | 0.0 | 3.0 | 0.00 | 0.00 | 0.00 | 60 | 1008.2 |
| 20260831171405 | 94 | 289 | 1.0 | 3.0 | 0.00 | 0.00 | 0.00 | 62 | 1008.2 |
| 20260831171303 | 94 | 289 | 1.0 | 3.0 | 0.00 | 0.00 | 0.00 | 62 | 1008.3 |
| 20260831171202 | 94 | 87 | 0.0 | 3.0 | 0.00 | 0.00 | 0.00 | 63 | 1008.2 |
| 20260831171103 | 93 | 3 | 0.0 | 3.0 | 0.00 | 0.00 | 0.00 | 62 | 1008.1 |
| 20260831171003 | 93 | 3 | 1.0 | 3.0 | 0.00 | 0.00 | 0.00 | 62 | 1008.2 |
| 20260831170903 | 93 | 3 | 1.0 | 3.0 | 0.00 | 0.00 | 0.00 | 62 | 1008.2 |
| 20260831170802 | 93 | 4 | 1.0 | 3.0 | 0.00 | 0.00 | 0.00 | 62 | 1008.2 |
| 20260831170703 | 93 | 6 | 2.0 | 3.0 | 0.00 | 0.00 | 0.00 | 62 | 1008.2 |
| 20260831170602 | 94 | 6 | 2.0 | 3.0 | 0.00 | 0.00 | 0.00 | 62 | 1008.2 |
| 20260831170503 | 94 | 17 | 1.0 | 2.0 | 0.00 | 0.00 | 0.00 | 62 | 1008.3 |
| 20260831170402 | 94 | 17 | 1.0 | 2.0 | 0.00 | 0.00 | 0.00 | 62 | 1008.2 |
| 20260831170302 | 94 | 21 | 1.0 | 2.0 | 0.00 | 0.00 | 0.00 | 62 | 1008.3 |
| 20260831170203 | 94 | 228 | 1.0 | 2.0 | 0.00 | 0.00 | 0.00 | 62 | 1008.3 |
| 20260831170002 | 94 | 233 | 0.0 | 2.0 | 0.00 | 0.00 | 0.00 | 62 | 1008.3 |
| 20260831165903 | 94 | 196 | 1.0 | 2.0 | 0.00 | 0.00 | 0.00 | 63 | 1008.4 |
| 20260831165802 | 93 | 196 | 1.0 | 2.0 | 0.00 | 0.00 | 0.00 | 63 | 1008.4 |
| 20260831165702 | 93 | 196 | 1.0 | 1.0 | 0.00 | 0.00 | 0.00 | 63 | 1008.4 |
| 20260831165602 | 93 | 196 | 0.0 | 1.0 | 0.00 | 0.00 | 0.00 | 61 | 1008.4 |
| 20260831165504 | 93 | 196 | 0.0 | 1.0 | 0.00 | 0.00 | 0.00 | 60 | 1008.4 |
| 20260831165402 | 93 | 320 | 0.0 | 2.0 | 0.00 | 0.00 | 0.00 | 60 | 1008.4 |
| 20260831165305 | 93 | 316 | 0.0 | 2.0 | 0.00 | 0.00 | 0.00 | 60 | 1008.5 |
| 20260831165204 | 93 | 316 | 0.0 | 2.0 | 0.00 | 0.00 | 0.00 | 60 | 1008.4 |
| 20260831165105 | 93 | 316 | 0.0 | 2.0 | 0.00 | 0.00 | 0.00 | 60 | 1008.5 |
| 20260831165003 | 94 | 316 | 0.0 | 3.0 | 0.00 | 0.00 | 0.00 | 62 | 1008.4 |
| 20260831164902 | 93 | 314 | 0.0 | 3.0 | 0.00 | 0.00 | 0.00 | 62 | 1008.4 |
| 20260831164802 | 93 | 314 | 0.0 | 3.0 | 0.00 | 0.00 | 0.00 | 62 | 1008.4 |
| 20260831164705 | 93 | 0 | 0.0 | 3.0 | 0.00 | 0.00 | 0.00 | 59 | 1008.4 |
| 20260831164603 | 93 | 0 | 0.0 | 3.0 | 0.00 | 0.00 | 0.00 | 59 | 1008.4 |
| 20260831164504 | 93 | 0 | 1.0 | 3.0 | 0.00 | 0.00 | 0.00 | 59 | 1008.4 |
| 20260831164402 | 93 | 0 | 1.0 | 3.0 | 0.00 | 0.00 | 0.00 | 59 | 1008.3 |
| 20260831164304 | 93 | 0 | 1.0 | 3.0 | 0.00 | 0.00 | 0.00 | 59 | 1008.4 |
| 20260831164202 | 93 | 0 | 1.0 | 3.0 | 0.00 | 0.00 | 0.00 | 59 | 1008.4 |
| 20260831164102 | 93 | 0 | 1.0 | 3.0 | 0.00 | 0.00 | 0.00 | 62 | 1008.4 |
| 20260831164003 | 93 | 347 | 0.0 | 3.0 | 0.00 | 0.00 | 0.00 | 62 | 1008.5 |
| 20260831163902 | 93 | 347 | 0.0 | 3.0 | 0.00 | 0.00 | 0.00 | 62 | 1008.4 |
| 20260831163804 | 93 | 347 | 1.0 | 3.0 | 0.00 | 0.00 | 0.00 | 62 | 1008.4 |
| 20260831163702 | 93 | 345 | 1.0 | 3.0 | 0.00 | 0.00 | 0.00 | 63 | 1008.5 |
| 20260831163606 | 92 | 221 | 0.0 | 3.0 | 0.00 | 0.00 | 0.00 | 64 | 1008.4 |
| 20260831163503 | 92 | 221 | 0.0 | 3.0 | 0.00 | 0.00 | 0.00 | 64 | 1008.4 |
| 20260831163401 | 92 | 221 | 0.0 | 3.0 | 0.00 | 0.00 | 0.00 | 64 | 1008.5 |
| 20260831163303 | 92 | 221 | 0.0 | 3.0 | 0.00 | 0.00 | 0.00 | 64 | 1008.5 |
| 20260831163205 | 92 | 221 | 0.0 | 3.0 | 0.00 | 0.00 | 0.00 | 64 | 1008.4 |
| 20260831163105 | 92 | 221 | 0.0 | 3.0 | 0.00 | 0.00 | 0.00 | 62 | 1008.5 |
| 20260831163002 | 92 | 221 | 1.0 | 3.0 | 0.00 | 0.00 | 0.00 | 62 | 1008.5 |
| 20260831162902 | 92 | 221 | 1.0 | 3.0 | 0.00 | 0.00 | 0.00 | 65 | 1008.4 |
| 20260831162805 | 92 | 0 | 1.0 | 2.0 | 0.00 | 0.00 | 0.00 | 66 | 1008.5 |
| 20260831162705 | 92 | 0 | 0.0 | 2.0 | 0.00 | 0.00 | 0.00 | 66 | 1008.5 |
| 20260831162605 | 92 | 7 | 0.0 | 2.0 | 0.00 | 0.00 | 0.00 | 66 | 1008.5 |
| 20260831162505 | 92 | 7 | 0.0 | 2.0 | 0.00 | 0.00 | 0.00 | 66 | 1008.5 |
| 20260831162402 | 92 | 7 | 0.0 | 2.0 | 0.00 | 0.00 | 0.00 | 68 | 1008.5 |
| 20260831162306 | 92 | 7 | 0.0 | 2.0 | 0.00 | 0.00 | 0.00 | 68 | 1008.5 |
| 20260831162202 | 92 | 4 | 0.0 | 1.0 | 0.00 | 0.00 | 0.00 | 66 | 1008.5 |
| 20260831162102 | 92 | 3 | 0.0 | 2.0 | 0.00 | 0.00 | 0.00 | 66 | 1008.6 |
| 20260831162002 | 92 | 3 | 0.0 | 2.0 | 0.00 | 0.00 | 0.00 | 67 | 1008.5 |
| 20260831161903 | 92 | 3 | 0.0 | 2.0 | 0.00 | 0.00 | 0.00 | 67 | 1008.6 |
| 20260831161802 | 91 | 3 | 0.0 | 2.0 | 0.00 | 0.00 | 0.00 | 68 | 1008.6 |
| 20260831161703 | 91 | 3 | 0.0 | 2.0 | 0.00 | 0.00 | 0.00 | 68 | 1008.6 |
| 20260831161605 | 91 | 6 | 0.0 | 2.0 | 0.00 | 0.00 | 0.00 | 68 | 1008.6 |
| 20260831161503 | 91 | 6 | 0.0 | 2.0 | 0.00 | 0.00 | 0.00 | 68 | 1008.6 |
| 20260831161402 | 90 | 0 | 1.0 | 2.0 | 0.00 | 0.00 | 0.00 | 69 | 1008.6 |
| 20260831161302 | 90 | 0 | 1.0 | 2.0 | 0.00 | 0.00 | 0.00 | 69 | 1008.6 |
| 20260831161202 | 90 | 0 | 1.0 | 2.0 | 0.00 | 0.00 | 0.00 | 69 | 1008.6 |
| 20260831161105 | 90 | 0 | 1.0 | 2.0 | 0.00 | 0.00 | 0.00 | 68 | 1008.7 |
| 20260831161002 | 91 | 0 | 1.0 | 2.0 | 0.00 | 0.00 | 0.00 | 67 | 1008.7 |
| 20260831160904 | 91 | 13 | 1.0 | 2.0 | 0.00 | 0.00 | 0.00 | 67 | 1008.7 |
| 20260831160805 | 91 | 0 | 1.0 | 2.0 | 0.00 | 0.00 | 0.00 | 67 | 1008.7 |
| 20260831160702 | 91 | 0 | 1.0 | 2.0 | 0.00 | 0.00 | 0.00 | 66 | 1008.7 |
| 20260831160604 | 90 | 0 | 1.0 | 2.0 | 0.00 | 0.00 | 0.00 | 66 | 1008.7 |
| 20260831160502 | 90 | 0 | 1.0 | 2.0 | 0.00 | 0.00 | 0.00 | 67 | 1008.8 |
| 20260831160406 | 90 | 212 | 0.0 | 2.0 | 0.00 | 0.00 | 0.00 | 67 | 1008.7 |
| 20260831160306 | 90 | 204 | 0.0 | 2.0 | 0.00 | 0.00 | 0.00 | 66 | 1008.7 |
| 20260831160202 | 90 | 204 | 1.0 | 2.0 | 0.00 | 0.00 | 0.00 | 66 | 1008.7 |
| 20260831160003 | 91 | 213 | 0.0 | 1.0 | 0.00 | 0.00 | 0.00 | 66 | 1008.6 |
| 20260831155902 | 91 | 228 | 0.0 | 1.0 | 0.00 | 0.00 | 0.00 | 66 | 1008.6 |
| 20260831155805 | 90 | 228 | 0.0 | 1.0 | 0.00 | 0.00 | 0.00 | 66 | 1008.6 |
| 20260831155701 | 90 | 228 | 0.0 | 1.0 | 0.00 | 0.00 | 0.00 | 66 | 1008.6 |
| 20260831155602 | 90 | 228 | 0.0 | 1.0 | 0.00 | 0.00 | 0.00 | 66 | 1008.7 |
| 20260831155503 | 90 | 228 | 0.0 | 1.0 | 0.00 | 0.00 | 0.00 | 65 | 1008.6 |
| 20260831155405 | 90 | 214 | 0.0 | 1.0 | 0.00 | 0.00 | 0.00 | 65 | 1008.6 |
| 20260831155306 | 90 | 214 | 0.0 | 1.0 | 0.00 | 0.00 | 0.00 | 65 | 1008.6 |
| 20260831155202 | 90 | 214 | 0.0 | 1.0 | 0.00 | 0.00 | 0.00 | 66 | 1008.6 |
| 20260831155104 | 90 | 214 | 0.0 | 1.0 | 0.00 | 0.00 | 0.00 | 68 | 1008.6 |
| 20260831155002 | 90 | 217 | 0.0 | 1.0 | 0.00 | 0.00 | 0.00 | 68 | 1008.7 |
| 20260831154902 | 90 | 213 | 0.0 | 1.0 | 0.00 | 0.00 | 0.00 | 67 | 1008.7 |
| 20260831154804 | 89 | 213 | 0.0 | 1.0 | 0.00 | 0.00 | 0.00 | 67 | 1008.6 |
| 20260831154702 | 89 | 213 | 0.0 | 1.0 | 0.00 | 0.00 | 0.00 | 67 | 1008.6 |
| 20260831154602 | 89 | 217 | 0.0 | 1.0 | 0.00 | 0.00 | 0.00 | 68 | 1008.6 |
| 20260831154502 | 89 | 217 | 0.0 | 1.0 | 0.00 | 0.00 | 0.00 | 68 | 1008.6 |
| 20260831154404 | 89 | 217 | 0.0 | 1.0 | 0.00 | 0.00 | 0.00 | 68 | 1008.6 |
| 20260831154303 | 89 | 166 | 0.0 | 1.0 | 0.00 | 0.00 | 0.00 | 69 | 1008.5 |
| 20260831154203 | 89 | 166 | 0.0 | 1.0 | 0.00 | 0.00 | 0.00 | 69 | 1008.6 |
| 20260831154102 | 89 | 166 | 0.0 | 1.0 | 0.00 | 0.00 | 0.00 | 69 | 1008.5 |
| 20260831154002 | 89 | 166 | 0.0 | 1.0 | 0.00 | 0.00 | 0.00 | 69 | 1008.5 |
| 20260831153904 | 89 | 166 | 0.0 | 1.0 | 0.00 | 0.00 | 0.00 | 70 | 1008.5 |
| 20260831153803 | 89 | 166 | 0.0 | 1.0 | 0.00 | 0.00 | 0.00 | 70 | 1008.5 |
| 20260831153702 | 89 | 166 | 0.0 | 1.0 | 0.00 | 0.00 | 0.00 | 70 | 1008.5 |
| 20260831153604 | 89 | 166 | 0.0 | 1.0 | 0.00 | 0.00 | 0.00 | 72 | 1008.5 |
| 20260831153503 | 89 | 166 | 0.0 | 1.0 | 0.00 | 0.00 | 0.00 | 72 | 1008.5 |
| 20260831153402 | 88 | 166 | 0.0 | 2.0 | 0.00 | 0.00 | 0.00 | 72 | 1008.5 |
| 20260831153303 | 88 | 166 | 0.0 | 2.0 | 0.00 | 0.00 | 0.00 | 72 | 1008.5 |
| 20260831153202 | 88 | 166 | 0.0 | 2.0 | 0.00 | 0.00 | 0.00 | 72 | 1008.5 |
| 20260831153101 | 87 | 166 | 0.0 | 2.0 | 0.00 | 0.00 | 0.00 | 72 | 1008.5 |
| 20260831153002 | 87 | 166 | 0.0 | 2.0 | 0.00 | 0.00 | 0.00 | 72 | 1008.5 |
| 20260831152903 | 87 | 169 | 0.0 | 2.0 | 0.00 | 0.00 | 0.00 | 72 | 1008.5 |
| 20260831152803 | 87 | 169 | 0.0 | 2.0 | 0.00 | 0.00 | 0.00 | 72 | 1008.5 |
| 20260831152703 | 87 | 169 | 0.0 | 2.0 | 0.00 | 0.00 | 0.00 | 72 | 1008.5 |
| 20260831152602 | 87 | 169 | 1.0 | 2.0 | 0.00 | 0.00 | 0.00 | 73 | 1008.5 |
| 20260831152503 | 87 | 169 | 1.0 | 2.0 | 0.00 | 0.00 | 0.00 | 74 | 1008.4 |
| 20260831152403 | 87 | 169 | 1.0 | 2.0 | 0.00 | 0.00 | 0.00 | 74 | 1008.5 |
| 20260831152306 | 87 | 169 | 1.0 | 2.0 | 0.00 | 0.00 | 0.00 | 74 | 1008.5 |
| 20260831152202 | 87 | 162 | 0.0 | 2.0 | 0.00 | 0.00 | 0.00 | 74 | 1008.5 |
| 20260831152102 | 87 | 162 | 0.0 | 3.0 | 0.00 | 0.00 | 0.00 | 74 | 1008.5 |
| 20260831152002 | 86 | 162 | 0.0 | 3.0 | 0.00 | 0.00 | 0.00 | 74 | 1008.5 |
| 20260831151904 | 86 | 162 | 0.0 | 3.0 | 0.00 | 0.00 | 0.00 | 75 | 1008.5 |
| 20260831151808 | 86 | 162 | 1.0 | 3.0 | 0.00 | 0.00 | 0.00 | 75 | 1008.6 |
| 20260831151702 | 86 | 162 | 1.0 | 3.0 | 0.00 | 0.00 | 0.00 | 75 | 1008.5 |
| 20260831151558 | 86 | 183 | 0.0 | 3.0 | 0.00 | 0.00 | 0.00 | 76 | 1008.5 |
| 20260831151456 | 86 | 183 | 0.0 | 3.0 | 0.00 | 0.00 | 0.00 | 76 | 1008.5 |
| 20260831151357 | 85 | 183 | 0.0 | 3.0 | 0.00 | 0.00 | 0.00 | 76 | 1008.5 |
| 20260831151255 | 85 | 183 | 1.0 | 3.0 | 0.00 | 0.00 | 0.00 | 76 | 1008.5 |
| 20260831151156 | 85 | 183 | 2.0 | 3.0 | 0.00 | 0.00 | 0.00 | 77 | 1008.4 |
| 20260831151052 | 85 | 183 | 2.0 | 3.0 | 0.00 | 0.00 | 0.00 | 77 | 1008.5 |
| 20260831150951 | 85 | 180 | 2.0 | 3.0 | 0.00 | 0.00 | 0.00 | 77 | 1008.4 |
| 20260831150832 | 85 | 155 | 2.0 | 3.0 | 0.00 | 0.00 | 0.00 | 77 | 1008.4 |
| 20260831150732 | 85 | 145 | 1.0 | 2.0 | 0.00 | 0.00 | 0.00 | 79 | 1008.4 |
| 20260831150630 | 85 | 142 | 1.0 | 2.0 | 0.00 | 0.00 | 0.00 | 79 | 1008.4 |
| 20260831150533 | 85 | 133 | 0.0 | 1.0 | 0.00 | 0.00 | 0.00 | 80 | 1008.4 |
| 20260831150432 | 85 | 130 | 0.0 | 1.0 | 0.00 | 0.00 | 0.00 | 81 | 1008.5 |
| 20260831150331 | 84 | 130 | 0.0 | 1.0 | 0.00 | 0.00 | 0.00 | 81 | 1008.4 |
| 20260831150230 | 84 | 130 | 0.0 | 1.0 | 0.00 | 0.00 | 0.00 | 82 | 1008.4 |
| 20260831150131 | 84 | 130 | 0.0 | 1.0 | 0.00 | 0.00 | 0.00 | 82 | 1008.4 |
| 20260831150033 | 84 | 130 | 0.0 | 1.0 | 0.00 | 0.00 | 0.00 | 83 | 1008.4 |
| 20260831145934 | 84 | 130 | 0.0 | 1.0 | 0.00 | 0.00 | 0.00 | 83 | 1008.4 |
| 20260831145833 | 83 | 130 | 0.0 | 2.0 | 0.00 | 0.00 | 0.00 | 83 | 1008.4 |
| 20260831145732 | 83 | 130 | 0.0 | 2.0 | 0.00 | 0.00 | 0.00 | 86 | 1008.4 |
| 20260831145633 | 83 | 130 | 0.0 | 2.0 | 0.00 | 0.00 | 0.00 | 86 | 1008.4 |
| 20260831145533 | 83 | 130 | 0.0 | 2.0 | 0.00 | 0.00 | 0.00 | 86 | 1008.3 |
| 20260831145432 | 83 | 131 | 0.0 | 2.0 | 0.00 | 0.00 | 0.00 | 88 | 1008.3 |
| 20260831145332 | 82 | 131 | 0.0 | 2.0 | 0.00 | 0.00 | 0.00 | 88 | 1008.3 |
| 20260831145233 | 82 | 131 | 0.0 | 2.0 | 0.00 | 0.00 | 0.00 | 88 | 1008.3 |
| 20260831145131 | 82 | 131 | 0.0 | 2.0 | 0.00 | 0.00 | 0.00 | 89 | 1008.3 |
| 20260831145032 | 82 | 131 | 1.0 | 2.0 | 0.00 | 0.00 | 0.00 | 89 | 1008.3 |
| 20260831144931 | 81 | 131 | 1.0 | 2.0 | 0.00 | 0.00 | 0.00 | 89 | 1008.3 |
| 20260831144831 | 81 | 128 | 0.0 | 2.0 | 0.00 | 0.00 | 0.00 | 89 | 1008.3 |
| 20260831144731 | 81 | 107 | 0.0 | 2.0 | 0.00 | 0.00 | 0.00 | 89 | 1008.3 |
| 20260831144631 | 80 | 109 | 0.0 | 2.0 | 0.00 | 0.00 | 0.00 | 90 | 1008.3 |
| 20260831144533 | 80 | 203 | 0.0 | 2.0 | 0.00 | 0.00 | 0.00 | 90 | 1008.2 |
| 20260831144431 | 80 | 204 | 0.0 | 2.0 | 0.00 | 0.00 | 0.00 | 90 | 1008.3 |
| 20260831144331 | 80 | 204 | 1.0 | 2.0 | 0.00 | 0.00 | 0.00 | 90 | 1008.3 |
| 20260831144232 | 80 | 204 | 0.0 | 2.0 | 0.00 | 0.00 | 0.00 | 91 | 1008.2 |
| 20260831144133 | 80 | 213 | 0.0 | 1.0 | 0.00 | 0.00 | 0.00 | 91 | 1008.2 |
| 20260831144033 | 80 | 213 | 0.0 | 1.0 | 0.00 | 0.00 | 0.00 | 91 | 1008.3 |
| 20260831143925 | 80 | 213 | 0.0 | 1.0 | 0.00 | 0.00 | 0.00 | 90 | 1008.2 |
| 20260831143824 | 80 | 213 | 0.0 | 1.0 | 0.00 | 0.00 | 0.00 | 90 | 1008.2 |
| 20260831143716 | 80 | 213 | 0.0 | 1.0 | 0.00 | 0.00 | 0.00 | 90 | 1008.2 |
| 20260831143616 | 80 | 216 | 0.0 | 1.0 | 0.00 | 0.00 | 0.00 | 90 | 1008.2 |
| 20260831143517 | 80 | 216 | 0.0 | 2.0 | 0.00 | 0.00 | 0.00 | 90 | 1008.3 |
| 20260831143415 | 80 | 216 | 0.0 | 2.0 | 0.00 | 0.00 | 0.00 | 91 | 1008.3 |
| 20260831143317 | 80 | 216 | 0.0 | 2.0 | 0.00 | 0.00 | 0.00 | 91 | 1008.3 |
| 20260831143217 | 79 | 216 | 0.0 | 2.0 | 0.00 | 0.00 | 0.00 | 91 | 1008.2 |
| 20260831143116 | 79 | 216 | 0.0 | 2.0 | 0.00 | 0.00 | 0.00 | 91 | 1008.2 |
| 20260831143018 | 79 | 216 | 1.0 | 2.0 | 0.00 | 0.00 | 0.00 | 91 | 1008.2 |
| 20260831142918 | 79 | 216 | 1.0 | 2.0 | 0.00 | 0.00 | 0.00 | 91 | 1008.2 |
| 20260831142817 | 79 | 216 | 0.0 | 2.0 | 0.00 | 0.00 | 0.00 | 91 | 1008.2 |
| 20260831142717 | 79 | 216 | 0.0 | 2.0 | 0.00 | 0.00 | 0.00 | 91 | 1008.2 |
| 20260831142618 | 79 | 216 | 1.0 | 2.0 | 0.00 | 0.00 | 0.00 | 91 | 1008.2 |
| 20260831142517 | 78 | 216 | 0.0 | 1.0 | 0.00 | 0.00 | 0.00 | 90 | 1008.2 |
| 20260831142417 | 78 | 216 | 0.0 | 0.0 | 0.00 | 0.00 | 0.00 | 90 | 1008.2 |
| 20260831142315 | 78 | 216 | 0.0 | 2.0 | 0.00 | 0.00 | 0.00 | 90 | 1008.2 |
| 20260831142215 | 78 | 216 | 0.0 | 2.0 | 0.00 | 0.00 | 0.00 | 90 | 1008.1 |
| 20260831142115 | 78 | 216 | 0.0 | 2.0 | 0.00 | 0.00 | 0.00 | 90 | 1008.2 |
| 20260831142016 | 78 | 216 | 0.0 | 2.0 | 0.00 | 0.00 | 0.00 | 91 | 1008.2 |
| 20260831141917 | 78 | 216 | 0.0 | 2.0 | 0.00 | 0.00 | 0.00 | 91 | 1008.2 |
| 20260831141815 | 78 | 216 | 0.0 | 2.0 | 0.00 | 0.00 | 0.00 | 91 | 1008.2 |
| 20260831141717 | 78 | 216 | 0.0 | 2.0 | 0.00 | 0.00 | 0.00 | 91 | 1008.2 |
| 20260831141615 | 78 | 216 | 0.0 | 2.0 | 0.00 | 0.00 | 0.00 | 91 | 1008.2 |
| 20260831141516 | 78 | 216 | 1.0 | 2.0 | 0.00 | 0.00 | 0.00 | 91 | 1008.2 |
| 20260831141417 | 78 | 216 | 1.0 | 2.0 | 0.00 | 0.00 | 0.00 | 90 | 1008.2 |
| 20260831141316 | 78 | 216 | 1.0 | 2.0 | 0.00 | 0.00 | 0.00 | 90 | 1008.2 |
| 20260831141216 | 78 | 216 | 1.0 | 2.0 | 0.00 | 0.00 | 0.00 | 90 | 1008.2 |
| 20260831141116 | 77 | 216 | 1.0 | 2.0 | 0.00 | 0.00 | 0.00 | 90 | 1008.1 |
| 20260831141016 | 77 | 216 | 1.0 | 2.0 | 0.00 | 0.00 | 0.00 | 90 | 1008.1 |
| 20260831140915 | 77 | 216 | 0.0 | 1.0 | 0.00 | 0.00 | 0.00 | 90 | 1008.1 |
| 20260831140816 | 77 | 216 | 0.0 | 1.0 | 0.00 | 0.00 | 0.00 | 90 | 1008.1 |
| 20260831140716 | 77 | 216 | 0.0 | 1.0 | 0.00 | 0.00 | 0.00 | 90 | 1008.1 |
| 20260831140614 | 77 | 216 | 0.0 | 1.0 | 0.00 | 0.00 | 0.00 | 90 | 1008.1 |
| 20260831140516 | 77 | 216 | 0.0 | 1.0 | 0.00 | 0.00 | 0.00 | 90 | 1008.0 |
| 20260831140415 | 77 | 216 | 0.0 | 0.0 | 0.00 | 0.00 | 0.00 | 90 | 1008.0 |
| 20260831140318 | 77 | 216 | 0.0 | 0.0 | 0.00 | 0.00 | 0.00 | 90 | 1008.1 |
| 20260831140218 | 77 | 216 | 0.0 | 0.0 | 0.00 | 0.00 | 0.00 | 90 | 1008.1 |
| 20260831140115 | 77 | 216 | 0.0 | 1.0 | 0.00 | 0.00 | 0.00 | 90 | 1008.1 |
| 20260831140018 | 76 | 216 | 0.0 | 1.0 | 0.00 | 0.00 | 0.00 | 90 | 1008.0 |
| 20260831135916 | 76 | 216 | 0.0 | 1.0 | 0.00 | 0.00 | 0.00 | 90 | 1008.0 |
| 20260831135817 | 76 | 216 | 0.0 | 1.0 | 0.00 | 0.00 | 0.00 | 90 | 1008.1 |
| 20260831135716 | 76 | 216 | 0.0 | 1.0 | 0.00 | 0.00 | 0.00 | 90 | 1008.0 |
| 20260831135615 | 76 | 214 | 0.0 | 1.0 | 0.00 | 0.00 | 0.00 | 90 | 1008.0 |
| 20260831135517 | 76 | 214 | 0.0 | 1.0 | 0.00 | 0.00 | 0.00 | 90 | 1008.0 |
| 20260831135416 | 76 | 214 | 0.0 | 1.0 | 0.00 | 0.00 | 0.00 | 90 | 1008.0 |
| 20260831135316 | 76 | 214 | 0.0 | 1.0 | 0.00 | 0.00 | 0.00 | 90 | 1007.9 |
| 20260831135214 | 76 | 214 | 0.0 | 1.0 | 0.00 | 0.00 | 0.00 | 90 | 1007.9 |
| 20260831135115 | 76 | 216 | 0.0 | 1.0 | 0.00 | 0.00 | 0.00 | 90 | 1007.9 |
| 20260831135017 | 76 | 216 | 0.0 | 1.0 | 0.00 | 0.00 | 0.00 | 90 | 1007.8 |
| 20260831134914 | 75 | 214 | 0.0 | 1.0 | 0.00 | 0.00 | 0.00 | 90 | 1007.8 |
| 20260831134815 | 75 | 214 | 0.0 | 1.0 | 0.00 | 0.00 | 0.00 | 90 | 1007.8 |
| 20260831134716 | 75 | 216 | 0.0 | 1.0 | 0.00 | 0.00 | 0.00 | 90 | 1007.8 |
| 20260831134617 | 75 | 214 | 0.0 | 1.0 | 0.00 | 0.00 | 0.00 | 90 | 1007.8 |
| 20260831134517 | 75 | 214 | 0.0 | 1.0 | 0.00 | 0.00 | 0.00 | 90 | 1007.8 |
| 20260831134415 | 75 | 216 | 0.0 | 0.0 | 0.00 | 0.00 | 0.00 | 90 | 1007.9 |
| 20260831134314 | 75 | 216 | 0.0 | 0.0 | 0.00 | 0.00 | 0.00 | 90 | 1007.9 |
| 20260831134215 | 75 | 216 | 0.0 | 0.0 | 0.00 | 0.00 | 0.00 | 90 | 1007.8 |
| 20260831134116 | 75 | 216 | 0.0 | 0.0 | 0.00 | 0.00 | 0.00 | 90 | 1007.9 |
| 20260831134016 | 75 | 216 | 0.0 | 1.0 | 0.00 | 0.00 | 0.00 | 90 | 1007.9 |
| 20260831133916 | 75 | 216 | 0.0 | 1.0 | 0.00 | 0.00 | 0.00 | 90 | 1007.9 |
| 20260831133814 | 75 | 216 | 0.0 | 1.0 | 0.00 | 0.00 | 0.00 | 90 | 1007.9 |
| 20260831133714 | 75 | 216 | 0.0 | 1.0 | 0.00 | 0.00 | 0.00 | 90 | 1007.9 |
| 20260831133615 | 74 | 216 | 0.0 | 1.0 | 0.00 | 0.00 | 0.00 | 90 | 1007.9 |
| 20260831133514 | 74 | 216 | 0.0 | 1.0 | 0.00 | 0.00 | 0.00 | 90 | 1007.9 |
| 20260831133416 | 74 | 216 | 0.0 | 1.0 | 0.00 | 0.00 | 0.00 | 90 | 1007.9 |
| 20260831133314 | 74 | 216 | 0.0 | 1.0 | 0.00 | 0.00 | 0.00 | 90 | 1008.0 |
| 20260831133214 | 74 | 216 | 0.0 | 1.0 | 0.00 | 0.00 | 0.00 | 90 | 1008.0 |
| 20260831133120 | 74 | 216 | 0.0 | 1.0 | 0.00 | 0.00 | 0.00 | 90 | 1008.0 |
| 20260831133016 | 74 | 216 | 0.0 | 0.0 | 0.00 | 0.00 | 0.00 | 89 | 1007.9 |
| 20260831132916 | 74 | 216 | 0.0 | 0.0 | 0.00 | 0.00 | 0.00 | 89 | 1007.9 |
| 20260831132819 | 74 | 216 | 0.0 | 0.0 | 0.00 | 0.00 | 0.00 | 90 | 1008.0 |
| 20260831132715 | 74 | 216 | 0.0 | 0.0 | 0.00 | 0.00 | 0.00 | 90 | 1008.0 |
| 20260831132615 | 74 | 216 | 0.0 | 0.0 | 0.00 | 0.00 | 0.00 | 89 | 1007.9 |
| 20260831132514 | 74 | 216 | 0.0 | 0.0 | 0.00 | 0.00 | 0.00 | 89 | 1007.9 |
| 20260831132416 | 74 | 216 | 0.0 | 0.0 | 0.00 | 0.00 | 0.00 | 89 | 1007.9 |
| 20260831132316 | 74 | 216 | 0.0 | 0.0 | 0.00 | 0.00 | 0.00 | 89 | 1007.9 |
| 20260831132214 | 74 | 216 | 0.0 | 0.0 | 0.00 | 0.00 | 0.00 | 89 | 1007.9 |
| 20260831132114 | 73 | 216 | 0.0 | 0.0 | 0.00 | 0.00 | 0.00 | 89 | 1007.9 |
| 20260831132015 | 73 | 216 | 0.0 | 0.0 | 0.00 | 0.00 | 0.00 | 89 | 1007.9 |
| 20260831131916 | 73 | 216 | 0.0 | 0.0 | 0.00 | 0.00 | 0.00 | 89 | 1007.8 |
| 20260831131815 | 73 | 216 | 0.0 | 0.0 | 0.00 | 0.00 | 0.00 | 89 | 1007.9 |
| 20260831131714 | 73 | 216 | 0.0 | 0.0 | 0.00 | 0.00 | 0.00 | 89 | 1007.9 |
| 20260831131615 | 73 | 216 | 0.0 | 0.0 | 0.00 | 0.00 | 0.00 | 89 | 1007.9 |
| 20260831131515 | 73 | 216 | 0.0 | 0.0 | 0.00 | 0.00 | 0.00 | 89 | 1007.9 |
| 20260831131414 | 73 | 216 | 0.0 | 0.0 | 0.00 | 0.00 | 0.00 | 89 | 1007.9 |
| 20260831131316 | 73 | 216 | 0.0 | 0.0 | 0.00 | 0.00 | 0.00 | 89 | 1007.8 |
| 20260831131214 | 73 | 216 | 0.0 | 0.0 | 0.00 | 0.00 | 0.00 | 89 | 1007.8 |
| 20260831131115 | 73 | 216 | 0.0 | 0.0 | 0.00 | 0.00 | 0.00 | 89 | 1007.8 |
| 20260831131015 | 73 | 216 | 0.0 | 0.0 | 0.00 | 0.00 | 0.00 | 89 | 1007.8 |
| 20260831130914 | 73 | 216 | 0.0 | 0.0 | 0.00 | 0.00 | 0.00 | 89 | 1007.8 |
| 20260831130816 | 73 | 216 | 0.0 | 0.0 | 0.00 | 0.00 | 0.00 | 89 | 1007.9 |
| 20260831130714 | 73 | 216 | 0.0 | 0.0 | 0.00 | 0.00 | 0.00 | 89 | 1007.8 |
| 20260831130615 | 73 | 216 | 0.0 | 0.0 | 0.00 | 0.00 | 0.00 | 89 | 1007.9 |
| 20260831130515 | 73 | 216 | 0.0 | 0.0 | 0.00 | 0.00 | 0.00 | 89 | 1007.8 |
| 20260831130414 | 73 | 216 | 0.0 | 0.0 | 0.00 | 0.00 | 0.00 | 89 | 1007.8 |
| 20260831130313 | 73 | 216 | 0.0 | 0.0 | 0.00 | 0.00 | 0.00 | 89 | 1007.8 |
| 20260831130215 | 73 | 216 | 0.0 | 0.0 | 0.00 | 0.00 | 0.00 | 89 | 1007.8 |
| 20260831130114 | 73 | 216 | 0.0 | 0.0 | 0.00 | 0.00 | 0.00 | 89 | 1007.8 |
| 20260831130014 | 73 | 216 | 0.0 | 0.0 | 0.00 | 0.00 | 0.00 | 89 | 1007.8 |
| 20260831125915 | 73 | 216 | 0.0 | 0.0 | 0.00 | 0.00 | 0.00 | 89 | 1007.7 |
| 20260831125815 | 73 | 216 | 0.0 | 0.0 | 0.00 | 0.00 | 0.00 | 89 | 1007.7 |
| 20260831125713 | 73 | 216 | 0.0 | 0.0 | 0.00 | 0.00 | 0.00 | 89 | 1007.7 |
| 20260831125613 | 73 | 216 | 0.0 | 0.0 | 0.00 | 0.00 | 0.00 | 89 | 1007.7 |
| 20260831125514 | 73 | 216 | 0.0 | 0.0 | 0.00 | 0.00 | 0.00 | 89 | 1007.7 |
| 20260831125414 | 73 | 216 | 0.0 | 0.0 | 0.00 | 0.00 | 0.00 | 89 | 1007.7 |
| 20260831125316 | 73 | 216 | 0.0 | 0.0 | 0.00 | 0.00 | 0.00 | 89 | 1007.7 |
| 20260831125214 | 73 | 216 | 0.0 | 0.0 | 0.00 | 0.00 | 0.00 | 89 | 1007.7 |
| 20260831125115 | 73 | 216 | 0.0 | 0.0 | 0.00 | 0.00 | 0.00 | 89 | 1007.7 |
| 20260831125014 | 73 | 216 | 0.0 | 0.0 | 0.00 | 0.00 | 0.00 | 89 | 1007.7 |
| 20260831124914 | 73 | 216 | 0.0 | 0.0 | 0.00 | 0.00 | 0.00 | 89 | 1007.6 |
| 20260831124814 | 73 | 216 | 0.0 | 0.0 | 0.00 | 0.00 | 0.00 | 89 | 1007.6 |
| 20260831124713 | 73 | 216 | 0.0 | 0.0 | 0.00 | 0.00 | 0.00 | 89 | 1007.6 |
| 20260831124614 | 73 | 216 | 0.0 | 0.0 | 0.00 | 0.00 | 0.00 | 89 | 1007.6 |
| 20260831124513 | 73 | 216 | 0.0 | 0.0 | 0.00 | 0.00 | 0.00 | 89 | 1007.5 |
| 20260831124415 | 73 | 216 | 0.0 | 0.0 | 0.00 | 0.00 | 0.00 | 89 | 1007.5 |
| 20260831124313 | 73 | 216 | 0.0 | 0.0 | 0.00 | 0.00 | 0.00 | 89 | 1007.5 |
| 20260831124215 | 73 | 216 | 0.0 | 0.0 | 0.00 | 0.00 | 0.00 | 89 | 1007.5 |
| 20260831124114 | 73 | 216 | 0.0 | 0.0 | 0.00 | 0.00 | 0.00 | 89 | 1007.5 |
| 20260831124015 | 73 | 216 | 0.0 | 0.0 | 0.00 | 0.00 | 0.00 | 89 | 1007.5 |
| 20260831123913 | 73 | 216 | 0.0 | 0.0 | 0.00 | 0.00 | 0.00 | 89 | 1007.4 |
| 20260831123815 | 73 | 216 | 0.0 | 0.0 | 0.00 | 0.00 | 0.00 | 89 | 1007.4 |
| 20260831123715 | 73 | 216 | 0.0 | 0.0 | 0.00 | 0.00 | 0.00 | 89 | 1007.5 |
| 20260831123614 | 73 | 216 | 0.0 | 0.0 | 0.00 | 0.00 | 0.00 | 89 | 1007.4 |
| 20260831123515 | 73 | 216 | 0.0 | 0.0 | 0.00 | 0.00 | 0.00 | 89 | 1007.5 |
| 20260831123413 | 73 | 216 | 0.0 | 0.0 | 0.00 | 0.00 | 0.00 | 89 | 1007.5 |
| 20260831123314 | 73 | 216 | 0.0 | 0.0 | 0.00 | 0.00 | 0.00 | 89 | 1007.5 |
| 20260831123213 | 73 | 216 | 0.0 | 0.0 | 0.00 | 0.00 | 0.00 | 89 | 1007.5 |
| 20260831123114 | 73 | 216 | 0.0 | 0.0 | 0.00 | 0.00 | 0.00 | 89 | 1007.5 |
| 20260831123013 | 73 | 216 | 0.0 | 0.0 | 0.00 | 0.00 | 0.00 | 89 | 1007.5 |
| 20260831122913 | 73 | 216 | 0.0 | 0.0 | 0.00 | 0.00 | 0.00 | 89 | 1007.5 |
| 20260831122807 | 73 | 216 | 0.0 | 0.0 | 0.00 | 0.00 | 0.00 | 89 | 1007.5 |
| 20260831122704 | 73 | 216 | 0.0 | 0.0 | 0.00 | 0.00 | 0.00 | 89 | 1007.4 |
| 20260831122602 | 73 | 216 | 0.0 | 0.0 | 0.00 | 0.00 | 0.00 | 89 | 1007.4 |
| 20260831122502 | 73 | 216 | 0.0 | 0.0 | 0.00 | 0.00 | 0.00 | 89 | 1007.3 |
| 20260831122402 | 73 | 216 | 0.0 | 0.0 | 0.00 | 0.00 | 0.00 | 89 | 1007.3 |
| 20260831122305 | 73 | 216 | 0.0 | 0.0 | 0.00 | 0.00 | 0.00 | 89 | 1007.3 |
| 20260831122202 | 73 | 216 | 0.0 | 0.0 | 0.00 | 0.00 | 0.00 | 89 | 1007.2 |
| 20260831122104 | 73 | 216 | 0.0 | 0.0 | 0.00 | 0.00 | 0.00 | 89 | 1007.2 |
| 20260831122002 | 73 | 216 | 0.0 | 0.0 | 0.00 | 0.00 | 0.00 | 89 | 1007.3 |
| 20260831121902 | 73 | 216 | 0.0 | 0.0 | 0.00 | 0.00 | 0.00 | 89 | 1007.2 |
| 20260831121759 | 73 | 216 | 0.0 | 0.0 | 0.00 | 0.00 | 0.00 | 89 | 1007.2 |
| 20260831121658 | 73 | 216 | 0.0 | 0.0 | 0.00 | 0.00 | 0.00 | 89 | 1007.2 |
| 20260831121549 | 73 | 216 | 0.0 | 0.0 | 0.00 | 0.00 | 0.00 | 89 | 1007.1 |
| 20260831121439 | 73 | 216 | 0.0 | 0.0 | 0.00 | 0.00 | 0.00 | 89 | 1007.2 |
| 20260831121336 | 73 | 216 | 0.0 | 0.0 | 0.00 | 0.00 | 0.00 | 89 | 1007.1 |
| 20260831121230 | 73 | 216 | 0.0 | 0.0 | 0.00 | 0.00 | 0.00 | 89 | 1007.1 |
| 20260831121131 | 73 | 216 | 0.0 | 0.0 | 0.00 | 0.00 | 0.00 | 89 | 1007.1 |
| 20260831121031 | 73 | 216 | 0.0 | 0.0 | 0.00 | 0.00 | 0.00 | 89 | 1007.1 |
| 20260831120932 | 73 | 216 | 0.0 | 0.0 | 0.00 | 0.00 | 0.00 | 89 | 1007.1 |
| 20260831120831 | 73 | 216 | 0.0 | 0.0 | 0.00 | 0.00 | 0.00 | 89 | 1007.1 |
| 20260831120731 | 73 | 216 | 0.0 | 0.0 | 0.00 | 0.00 | 0.00 | 89 | 1007.1 |
| 20260831120631 | 73 | 216 | 0.0 | 0.0 | 0.00 | 0.00 | 0.00 | 89 | 1007.1 |
| 20260831120531 | 73 | 216 | 0.0 | 0.0 | 0.00 | 0.00 | 0.00 | 89 | 1007.1 |
| 20260831120430 | 73 | 216 | 0.0 | 0.0 | 0.00 | 0.00 | 0.00 | 89 | 1007.1 |
| 20260831120331 | 73 | 216 | 0.0 | 0.0 | 0.00 | 0.00 | 0.00 | 89 | 1007.1 |
| 20260831120225 | 73 | 216 | 0.0 | 0.0 | 0.00 | 0.00 | 0.00 | 89 | 1007.0 |
| 20260831120126 | 73 | 216 | 0.0 | 0.0 | 0.00 | 0.00 | 0.00 | 89 | 1007.0 |
| 20260831120014 | 73 | 216 | 0.0 | 0.0 | 0.00 | 0.00 | 0.00 | 89 | 1006.9 |
| 20260831115913 | 73 | 216 | 0.0 | 0.0 | 0.00 | 0.00 | 0.00 | 89 | 1007.0 |
| 20260831115814 | 73 | 216 | 0.0 | 0.0 | 0.00 | 0.00 | 0.00 | 89 | 1006.9 |
| 20260831115713 | 73 | 216 | 0.0 | 0.0 | 0.00 | 0.00 | 0.00 | 89 | 1006.9 |
| 20260831115614 | 73 | 216 | 0.0 | 0.0 | 0.00 | 0.00 | 0.00 | 89 | 1006.9 |
| 20260831115514 | 73 | 216 | 0.0 | 0.0 | 0.00 | 0.00 | 0.00 | 89 | 1006.9 |
| 20260831115413 | 73 | 216 | 0.0 | 0.0 | 0.00 | 0.00 | 0.00 | 89 | 1006.9 |
| 20260831115313 | 73 | 216 | 0.0 | 0.0 | 0.00 | 0.00 | 0.00 | 89 | 1006.9 |
| 20260831115213 | 73 | 216 | 0.0 | 0.0 | 0.00 | 0.00 | 0.00 | 89 | 1006.8 |
| 20260831115112 | 73 | 216 | 0.0 | 0.0 | 0.00 | 0.00 | 0.00 | 89 | 1006.8 |
| 20260831115014 | 73 | 216 | 0.0 | 0.0 | 0.00 | 0.00 | 0.00 | 89 | 1006.8 |
| 20260831114913 | 73 | 216 | 0.0 | 0.0 | 0.00 | 0.00 | 0.00 | 89 | 1006.9 |
| 20260831114812 | 73 | 216 | 0.0 | 0.0 | 0.00 | 0.00 | 0.00 | 89 | 1006.8 |
| 20260831114712 | 73 | 216 | 0.0 | 0.0 | 0.00 | 0.00 | 0.00 | 89 | 1006.9 |
| 20260831114614 | 73 | 216 | 0.0 | 0.0 | 0.00 | 0.00 | 0.00 | 89 | 1006.9 |
| 20260831114513 | 74 | 216 | 0.0 | 0.0 | 0.00 | 0.00 | 0.00 | 89 | 1006.8 |
| 20260831114413 | 74 | 216 | 0.0 | 0.0 | 0.00 | 0.00 | 0.00 | 89 | 1006.8 |
| 20260831114313 | 74 | 216 | 0.0 | 0.0 | 0.00 | 0.00 | 0.00 | 89 | 1006.9 |
| 20260831114213 | 73 | 216 | 0.0 | 0.0 | 0.00 | 0.00 | 0.00 | 89 | 1006.8 |
| 20260831114113 | 74 | 216 | 0.0 | 0.0 | 0.00 | 0.00 | 0.00 | 89 | 1006.8 |
| 20260831114013 | 74 | 216 | 0.0 | 0.0 | 0.00 | 0.00 | 0.00 | 89 | 1006.7 |
| 20260831113912 | 74 | 216 | 0.0 | 0.0 | 0.00 | 0.00 | 0.00 | 89 | 1006.8 |
| 20260831113812 | 74 | 216 | 0.0 | 0.0 | 0.00 | 0.00 | 0.00 | 89 | 1006.8 |
| 20260831113712 | 74 | 216 | 0.0 | 0.0 | 0.00 | 0.00 | 0.00 | 89 | 1006.8 |
| 20260831113613 | 74 | 216 | 0.0 | 0.0 | 0.00 | 0.00 | 0.00 | 89 | 1006.8 |
| 20260831113511 | 74 | 216 | 0.0 | 0.0 | 0.00 | 0.00 | 0.00 | 89 | 1006.8 |
| 20260831113412 | 74 | 216 | 0.0 | 0.0 | 0.00 | 0.00 | 0.00 | 89 | 1006.8 |
| 20260831113311 | 74 | 216 | 0.0 | 0.0 | 0.00 | 0.00 | 0.00 | 89 | 1006.8 |
| 20260831113213 | 74 | 216 | 0.0 | 0.0 | 0.00 | 0.00 | 0.00 | 89 | 1006.8 |
| 20260831113113 | 74 | 216 | 0.0 | 0.0 | 0.00 | 0.00 | 0.00 | 89 | 1006.7 |
| 20260831113013 | 74 | 216 | 0.0 | 0.0 | 0.00 | 0.00 | 0.00 | 89 | 1006.7 |
| 20260831112911 | 74 | 216 | 0.0 | 0.0 | 0.00 | 0.00 | 0.00 | 89 | 1006.7 |
| 20260831112811 | 74 | 216 | 0.0 | 0.0 | 0.00 | 0.00 | 0.00 | 89 | 1006.8 |
| 20260831112711 | 74 | 216 | 0.0 | 0.0 | 0.00 | 0.00 | 0.00 | 89 | 1006.7 |
| 20260831112611 | 74 | 216 | 0.0 | 0.0 | 0.00 | 0.00 | 0.00 | 89 | 1006.8 |
| 20260831112511 | 74 | 216 | 0.0 | 0.0 | 0.00 | 0.00 | 0.00 | 89 | 1006.8 |
| 20260831112413 | 74 | 216 | 0.0 | 0.0 | 0.00 | 0.00 | 0.00 | 89 | 1006.9 |
| 20260831112312 | 74 | 216 | 0.0 | 0.0 | 0.00 | 0.00 | 0.00 | 89 | 1006.9 |
| 20260831112212 | 74 | 216 | 0.0 | 0.0 | 0.00 | 0.00 | 0.00 | 89 | 1006.9 |
| 20260831112112 | 74 | 216 | 0.0 | 0.0 | 0.00 | 0.00 | 0.00 | 89 | 1006.9 |
| 20260831112012 | 74 | 216 | 0.0 | 0.0 | 0.00 | 0.00 | 0.00 | 89 | 1006.9 |
| 20260831111912 | 74 | 216 | 0.0 | 0.0 | 0.00 | 0.00 | 0.00 | 89 | 1006.9 |
| 20260831111811 | 74 | 216 | 0.0 | 0.0 | 0.00 | 0.00 | 0.00 | 89 | 1007.0 |
| 20260831111712 | 74 | 216 | 0.0 | 0.0 | 0.00 | 0.00 | 0.00 | 89 | 1006.9 |
| 20260831111613 | 74 | 216 | 0.0 | 0.0 | 0.00 | 0.00 | 0.00 | 89 | 1006.9 |
| 20260831111511 | 74 | 216 | 0.0 | 0.0 | 0.00 | 0.00 | 0.00 | 89 | 1006.9 |
| 20260831111412 | 74 | 216 | 0.0 | 0.0 | 0.00 | 0.00 | 0.00 | 89 | 1006.9 |
| 20260831111311 | 74 | 216 | 0.0 | 0.0 | 0.00 | 0.00 | 0.00 | 89 | 1006.9 |
| 20260831111211 | 74 | 216 | 0.0 | 0.0 | 0.00 | 0.00 | 0.00 | 89 | 1007.0 |
| 20260831111111 | 74 | 216 | 0.0 | 0.0 | 0.00 | 0.00 | 0.00 | 89 | 1006.9 |
| 20260831111012 | 74 | 216 | 0.0 | 0.0 | 0.00 | 0.00 | 0.00 | 89 | 1007.0 |
| 20260831110913 | 74 | 216 | 0.0 | 0.0 | 0.00 | 0.00 | 0.00 | 89 | 1006.9 |
| 20260831110811 | 74 | 216 | 0.0 | 0.0 | 0.00 | 0.00 | 0.00 | 89 | 1007.0 |
| 20260831110712 | 74 | 216 | 0.0 | 0.0 | 0.00 | 0.00 | 0.00 | 89 | 1007.0 |
| 20260831110608 | 74 | 216 | 0.0 | 0.0 | 0.00 | 0.00 | 0.00 | 89 | 1006.9 |
| 20260831110506 | 74 | 216 | 0.0 | 0.0 | 0.00 | 0.00 | 0.00 | 89 | 1006.9 |
| 20260831110405 | 74 | 216 | 0.0 | 0.0 | 0.00 | 0.00 | 0.00 | 89 | 1006.9 |
| 20260831110305 | 74 | 216 | 0.0 | 0.0 | 0.00 | 0.00 | 0.00 | 89 | 1006.9 |
| 20260831110203 | 74 | 216 | 0.0 | 0.0 | 0.00 | 0.00 | 0.00 | 89 | 1006.8 |
| 20260831110105 | 74 | 216 | 0.0 | 0.0 | 0.00 | 0.00 | 0.00 | 89 | 1006.9 |
| 20260831110002 | 74 | 216 | 0.0 | 0.0 | 0.00 | 0.00 | 0.00 | 89 | 1006.9 |
| 20260831105903 | 74 | 216 | 0.0 | 0.0 | 0.00 | 0.00 | 0.00 | 89 | 1006.9 |
| 20260831105804 | 74 | 216 | 0.0 | 0.0 | 0.00 | 0.00 | 0.00 | 89 | 1006.8 |
| 20260831105702 | 74 | 216 | 0.0 | 0.0 | 0.00 | 0.00 | 0.00 | 89 | 1006.8 |
| 20260831105603 | 74 | 216 | 0.0 | 0.0 | 0.00 | 0.00 | 0.00 | 89 | 1006.8 |
| 20260831105502 | 74 | 216 | 0.0 | 0.0 | 0.00 | 0.00 | 0.00 | 89 | 1006.8 |
| 20260831105403 | 74 | 216 | 0.0 | 0.0 | 0.00 | 0.00 | 0.00 | 89 | 1006.8 |
| 20260831105306 | 74 | 216 | 0.0 | 0.0 | 0.00 | 0.00 | 0.00 | 89 | 1006.8 |
| 20260831105203 | 74 | 216 | 0.0 | 0.0 | 0.00 | 0.00 | 0.00 | 89 | 1006.8 |
| 20260831105103 | 74 | 216 | 0.0 | 0.0 | 0.00 | 0.00 | 0.00 | 89 | 1006.8 |
| 20260831105006 | 74 | 216 | 0.0 | 0.0 | 0.00 | 0.00 | 0.00 | 89 | 1006.8 |
| 20260831104904 | 74 | 216 | 0.0 | 0.0 | 0.00 | 0.00 | 0.00 | 89 | 1006.7 |
| 20260831104801 | 74 | 216 | 0.0 | 0.0 | 0.00 | 0.00 | 0.00 | 89 | 1006.7 |
| 20260831104704 | 74 | 216 | 0.0 | 0.0 | 0.00 | 0.00 | 0.00 | 89 | 1006.7 |
| 20260831104603 | 74 | 216 | 0.0 | 0.0 | 0.00 | 0.00 | 0.00 | 89 | 1006.7 |
| 20260831104504 | 74 | 216 | 0.0 | 0.0 | 0.00 | 0.00 | 0.00 | 89 | 1006.8 |
| 20260831104403 | 74 | 216 | 0.0 | 0.0 | 0.00 | 0.00 | 0.00 | 89 | 1006.8 |
| 20260831104303 | 74 | 216 | 0.0 | 0.0 | 0.00 | 0.00 | 0.00 | 89 | 1006.8 |
| 20260831104203 | 74 | 216 | 0.0 | 0.0 | 0.00 | 0.00 | 0.00 | 89 | 1006.8 |
| 20260831104103 | 74 | 216 | 0.0 | 0.0 | 0.00 | 0.00 | 0.00 | 89 | 1006.7 |
| 20260831104004 | 74 | 216 | 0.0 | 0.0 | 0.00 | 0.00 | 0.00 | 89 | 1006.8 |
| 20260831103903 | 74 | 216 | 0.0 | 0.0 | 0.00 | 0.00 | 0.00 | 89 | 1006.8 |
| 20260831103803 | 74 | 216 | 0.0 | 0.0 | 0.00 | 0.00 | 0.00 | 89 | 1006.8 |
| 20260831103703 | 74 | 216 | 0.0 | 0.0 | 0.00 | 0.00 | 0.00 | 89 | 1006.8 |
| 20260831103603 | 74 | 216 | 0.0 | 0.0 | 0.00 | 0.00 | 0.00 | 89 | 1006.8 |
| 20260831103505 | 74 | 216 | 0.0 | 0.0 | 0.00 | 0.00 | 0.00 | 89 | 1006.8 |
| 20260831103403 | 74 | 216 | 0.0 | 0.0 | 0.00 | 0.00 | 0.00 | 89 | 1006.8 |
| 20260831103303 | 74 | 216 | 0.0 | 0.0 | 0.00 | 0.00 | 0.00 | 89 | 1006.8 |
| 20260831103203 | 74 | 216 | 0.0 | 0.0 | 0.00 | 0.00 | 0.00 | 89 | 1006.8 |
| 20260831103103 | 74 | 216 | 0.0 | 0.0 | 0.00 | 0.00 | 0.00 | 89 | 1006.8 |
| 20260831103004 | 74 | 216 | 0.0 | 0.0 | 0.00 | 0.00 | 0.00 | 89 | 1006.8 |
| 20260831102903 | 74 | 216 | 0.0 | 0.0 | 0.00 | 0.00 | 0.00 | 89 | 1006.8 |
| 20260831102803 | 74 | 216 | 0.0 | 0.0 | 0.00 | 0.00 | 0.00 | 89 | 1006.8 |
| 20260831102703 | 74 | 216 | 0.0 | 0.0 | 0.00 | 0.00 | 0.00 | 89 | 1006.8 |
| 20260831102603 | 74 | 216 | 0.0 | 0.0 | 0.00 | 0.00 | 0.00 | 89 | 1006.8 |
| 20260831102504 | 74 | 216 | 0.0 | 0.0 | 0.00 | 0.00 | 0.00 | 89 | 1006.8 |
| 20260831102403 | 74 | 216 | 0.0 | 0.0 | 0.00 | 0.00 | 0.00 | 89 | 1006.8 |
| 20260831102306 | 74 | 216 | 0.0 | 0.0 | 0.00 | 0.00 | 0.00 | 89 | 1006.9 |
| 20260831102203 | 74 | 216 | 0.0 | 0.0 | 0.00 | 0.00 | 0.00 | 89 | 1006.9 |
| 20260831102103 | 74 | 216 | 0.0 | 0.0 | 0.00 | 0.00 | 0.00 | 89 | 1006.9 |
| 20260831102004 | 74 | 216 | 0.0 | 0.0 | 0.00 | 0.00 | 0.00 | 89 | 1006.8 |
| 20260831101905 | 74 | 216 | 0.0 | 0.0 | 0.00 | 0.00 | 0.00 | 89 | 1006.9 |
| 20260831101803 | 74 | 216 | 0.0 | 0.0 | 0.00 | 0.00 | 0.00 | 89 | 1006.9 |
| 20260831101704 | 74 | 216 | 0.0 | 0.0 | 0.00 | 0.00 | 0.00 | 89 | 1006.9 |
| 20260831101603 | 74 | 216 | 0.0 | 0.0 | 0.00 | 0.00 | 0.00 | 89 | 1006.9 |
| 20260831101504 | 74 | 216 | 0.0 | 0.0 | 0.00 | 0.00 | 0.00 | 89 | 1006.9 |
| 20260831101404 | 74 | 216 | 0.0 | 0.0 | 0.00 | 0.00 | 0.00 | 89 | 1006.9 |
| 20260831101303 | 74 | 216 | 0.0 | 0.0 | 0.00 | 0.00 | 0.00 | 89 | 1006.9 |
| 20260831101203 | 74 | 216 | 0.0 | 0.0 | 0.00 | 0.00 | 0.00 | 89 | 1006.8 |
| 20260831101103 | 74 | 216 | 0.0 | 0.0 | 0.00 | 0.00 | 0.00 | 89 | 1006.9 |
| 20260831101004 | 74 | 216 | 0.0 | 0.0 | 0.00 | 0.00 | 0.00 | 89 | 1006.9 |
| 20260831100903 | 74 | 216 | 0.0 | 0.0 | 0.00 | 0.00 | 0.00 | 89 | 1006.9 |
| 20260831100803 | 74 | 216 | 0.0 | 0.0 | 0.00 | 0.00 | 0.00 | 89 | 1006.9 |
| 20260831100704 | 74 | 216 | 0.0 | 0.0 | 0.00 | 0.00 | 0.00 | 89 | 1006.9 |
| 20260831100603 | 74 | 216 | 0.0 | 0.0 | 0.00 | 0.00 | 0.00 | 89 | 1006.9 |
| 20260831100503 | 74 | 216 | 0.0 | 0.0 | 0.00 | 0.00 | 0.00 | 89 | 1006.9 |
| 20260831100404 | 74 | 216 | 0.0 | 0.0 | 0.00 | 0.00 | 0.00 | 89 | 1006.8 |
| 20260831100303 | 74 | 216 | 0.0 | 0.0 | 0.00 | 0.00 | 0.00 | 89 | 1006.8 |
| 20260831100204 | 74 | 216 | 0.0 | 0.0 | 0.00 | 0.00 | 0.00 | 89 | 1006.8 |
| 20260831100004 | 74 | 216 | 0.0 | 0.0 | 0.00 | 0.00 | 0.00 | 89 | 1006.9 |
| 20260831095904 | 74 | 216 | 0.0 | 0.0 | 0.00 | 0.00 | 0.00 | 89 | 1006.9 |
| 20260831095803 | 74 | 216 | 0.0 | 0.0 | 0.00 | 0.00 | 0.00 | 89 | 1006.9 |
| 20260831095702 | 74 | 216 | 0.0 | 0.0 | 0.00 | 0.00 | 0.00 | 89 | 1006.8 |
| 20260831095604 | 74 | 216 | 0.0 | 0.0 | 0.00 | 0.00 | 0.00 | 89 | 1006.8 |
| 20260831095506 | 74 | 216 | 0.0 | 0.0 | 0.00 | 0.00 | 0.00 | 89 | 1006.8 |
| 20260831095405 | 74 | 216 | 0.0 | 0.0 | 0.00 | 0.00 | 0.00 | 89 | 1006.9 |
| 20260831095253 | 74 | 216 | 0.0 | 0.0 | 0.00 | 0.00 | 0.00 | 89 | 1006.8 |
| 20260831095155 | 74 | 216 | 0.0 | 0.0 | 0.00 | 0.00 | 0.00 | 89 | 1006.8 |
| 20260831095053 | 74 | 216 | 0.0 | 0.0 | 0.00 | 0.00 | 0.00 | 89 | 1006.8 |
| 20260831094950 | 74 | 216 | 0.0 | 0.0 | 0.00 | 0.00 | 0.00 | 89 | 1006.8 |
| 20260831094848 | 74 | 216 | 0.0 | 0.0 | 0.00 | 0.00 | 0.00 | 89 | 1006.8 |
| 20260831094746 | 74 | 216 | 0.0 | 0.0 | 0.00 | 0.00 | 0.00 | 89 | 1006.8 |
| 20260831094642 | 74 | 216 | 0.0 | 0.0 | 0.00 | 0.00 | 0.00 | 89 | 1006.7 |
| 20260831094535 | 74 | 216 | 0.0 | 0.0 | 0.00 | 0.00 | 0.00 | 89 | 1006.8 |
| 20260831094438 | 74 | 216 | 0.0 | 0.0 | 0.00 | 0.00 | 0.00 | 89 | 1006.8 |
| 20260831094332 | 74 | 216 | 0.0 | 0.0 | 0.00 | 0.00 | 0.00 | 89 | 1006.8 |
| 20260831094231 | 74 | 216 | 0.0 | 0.0 | 0.00 | 0.00 | 0.00 | 89 | 1006.8 |
| 20260831094132 | 74 | 216 | 0.0 | 0.0 | 0.00 | 0.00 | 0.00 | 89 | 1006.8 |
| 20260831094031 | 74 | 216 | 0.0 | 0.0 | 0.00 | 0.00 | 0.00 | 89 | 1006.7 |
| 20260831093931 | 74 | 216 | 0.0 | 0.0 | 0.00 | 0.00 | 0.00 | 89 | 1006.8 |
| 20260831093831 | 74 | 216 | 0.0 | 0.0 | 0.00 | 0.00 | 0.00 | 89 | 1006.8 |
| 20260831093731 | 74 | 216 | 0.0 | 0.0 | 0.00 | 0.00 | 0.00 | 89 | 1006.8 |
| 20260831093632 | 74 | 216 | 0.0 | 0.0 | 0.00 | 0.00 | 0.00 | 89 | 1006.8 |
| 20260831093533 | 74 | 216 | 0.0 | 0.0 | 0.00 | 0.00 | 0.00 | 89 | 1006.8 |
| 20260831093433 | 74 | 216 | 0.0 | 0.0 | 0.00 | 0.00 | 0.00 | 89 | 1006.8 |
| 20260831093334 | 74 | 216 | 0.0 | 0.0 | 0.00 | 0.00 | 0.00 | 89 | 1006.8 |
| 20260831093230 | 74 | 216 | 0.0 | 0.0 | 0.00 | 0.00 | 0.00 | 89 | 1006.8 |
| 20260831093132 | 74 | 216 | 0.0 | 0.0 | 0.00 | 0.00 | 0.00 | 89 | 1006.8 |
| 20260831093031 | 74 | 216 | 0.0 | 0.0 | 0.00 | 0.00 | 0.00 | 89 | 1006.7 |
| 20260831092932 | 75 | 216 | 0.0 | 0.0 | 0.00 | 0.00 | 0.00 | 89 | 1006.7 |
| 20260831092832 | 75 | 216 | 0.0 | 0.0 | 0.00 | 0.00 | 0.00 | 89 | 1006.7 |
| 20260831092730 | 75 | 216 | 0.0 | 0.0 | 0.00 | 0.00 | 0.00 | 89 | 1006.6 |
| 20260831092632 | 75 | 216 | 0.0 | 0.0 | 0.00 | 0.00 | 0.00 | 89 | 1006.6 |
| 20260831092530 | 75 | 216 | 0.0 | 0.0 | 0.00 | 0.00 | 0.00 | 89 | 1006.7 |
| 20260831092426 | 75 | 216 | 0.0 | 0.0 | 0.00 | 0.00 | 0.00 | 89 | 1006.6 |
| 20260831092328 | 75 | 216 | 0.0 | 0.0 | 0.00 | 0.00 | 0.00 | 89 | 1006.6 |
| 20260831092218 | 75 | 216 | 0.0 | 0.0 | 0.00 | 0.00 | 0.00 | 89 | 1006.5 |
| 20260831092109 | 75 | 216 | 0.0 | 0.0 | 0.00 | 0.00 | 0.00 | 89 | 1006.5 |
| 20260831092010 | 75 | 216 | 0.0 | 0.0 | 0.00 | 0.00 | 0.00 | 89 | 1006.5 |
| 20260831091909 | 75 | 216 | 0.0 | 0.0 | 0.00 | 0.00 | 0.00 | 89 | 1006.5 |
| 20260831091808 | 75 | 216 | 0.0 | 0.0 | 0.00 | 0.00 | 0.00 | 89 | 1006.5 |
| 20260831091710 | 75 | 216 | 0.0 | 0.0 | 0.00 | 0.00 | 0.00 | 89 | 1006.6 |
| 20260831091609 | 75 | 216 | 0.0 | 0.0 | 0.00 | 0.00 | 0.00 | 89 | 1006.6 |
| 20260831091509 | 75 | 216 | 0.0 | 0.0 | 0.00 | 0.00 | 0.00 | 88 | 1006.6 |
| 20260831091409 | 75 | 216 | 0.0 | 0.0 | 0.00 | 0.00 | 0.00 | 88 | 1006.6 |
| 20260831091310 | 75 | 216 | 0.0 | 0.0 | 0.00 | 0.00 | 0.00 | 88 | 1006.6 |
| 20260831091211 | 75 | 216 | 0.0 | 0.0 | 0.00 | 0.00 | 0.00 | 89 | 1006.6 |
| 20260831091109 | 75 | 216 | 0.0 | 0.0 | 0.00 | 0.00 | 0.00 | 89 | 1006.6 |
| 20260831091009 | 75 | 216 | 0.0 | 0.0 | 0.00 | 0.00 | 0.00 | 89 | 1006.6 |
| 20260831090909 | 75 | 216 | 0.0 | 0.0 | 0.00 | 0.00 | 0.00 | 89 | 1006.7 |
| 20260831090811 | 75 | 216 | 0.0 | 0.0 | 0.00 | 0.00 | 0.00 | 89 | 1006.7 |
| 20260831090709 | 75 | 216 | 0.0 | 0.0 | 0.00 | 0.00 | 0.00 | 89 | 1006.7 |
| 20260831090608 | 75 | 216 | 0.0 | 0.0 | 0.00 | 0.00 | 0.00 | 89 | 1006.8 |
| 20260831090510 | 75 | 216 | 0.0 | 0.0 | 0.00 | 0.00 | 0.00 | 89 | 1006.7 |
| 20260831090408 | 75 | 216 | 0.0 | 0.0 | 0.00 | 0.00 | 0.00 | 89 | 1006.8 |
| 20260831090308 | 75 | 216 | 0.0 | 0.0 | 0.00 | 0.00 | 0.00 | 88 | 1006.8 |
| 20260831090208 | 75 | 216 | 0.0 | 0.0 | 0.00 | 0.00 | 0.00 | 88 | 1006.8 |
| 20260831090105 | 75 | 216 | 0.0 | 0.0 | 0.00 | 0.00 | 0.00 | 88 | 1006.7 |
| 20260831090003 | 75 | 216 | 0.0 | 0.0 | 0.00 | 0.00 | 0.00 | 88 | 1006.7 |
| 20260831085902 | 75 | 216 | 0.0 | 0.0 | 0.00 | 0.00 | 0.00 | 88 | 1006.6 |
| 20260831085802 | 75 | 216 | 0.0 | 0.0 | 0.00 | 0.00 | 0.00 | 88 | 1006.7 |
| 20260831085702 | 75 | 216 | 0.0 | 0.0 | 0.00 | 0.00 | 0.00 | 88 | 1006.7 |
| 20260831085602 | 75 | 216 | 0.0 | 0.0 | 0.00 | 0.00 | 0.00 | 88 | 1006.7 |
| 20260831085503 | 75 | 216 | 0.0 | 0.0 | 0.00 | 0.00 | 0.00 | 88 | 1006.7 |
| 20260831085402 | 75 | 216 | 0.0 | 0.0 | 0.00 | 0.00 | 0.00 | 88 | 1006.8 |
| 20260831085306 | 75 | 216 | 0.0 | 0.0 | 0.00 | 0.00 | 0.00 | 88 | 1006.8 |
| 20260831085202 | 75 | 216 | 0.0 | 0.0 | 0.00 | 0.00 | 0.00 | 88 | 1006.7 |
| 20260831085104 | 75 | 216 | 0.0 | 0.0 | 0.00 | 0.00 | 0.00 | 88 | 1006.7 |
| 20260831085002 | 75 | 216 | 0.0 | 0.0 | 0.00 | 0.00 | 0.00 | 88 | 1006.7 |
| 20260831084902 | 75 | 216 | 0.0 | 0.0 | 0.00 | 0.00 | 0.00 | 88 | 1006.7 |
| 20260831084803 | 75 | 216 | 0.0 | 0.0 | 0.00 | 0.00 | 0.00 | 88 | 1006.8 |
| 20260831084702 | 75 | 216 | 0.0 | 0.0 | 0.00 | 0.00 | 0.00 | 88 | 1006.8 |
| 20260831084603 | 75 | 216 | 0.0 | 0.0 | 0.00 | 0.00 | 0.00 | 88 | 1006.7 |
| 20260831084505 | 75 | 216 | 0.0 | 0.0 | 0.00 | 0.00 | 0.00 | 88 | 1006.7 |
| 20260831084402 | 75 | 216 | 0.0 | 0.0 | 0.00 | 0.00 | 0.00 | 88 | 1006.8 |
| 20260831084302 | 75 | 216 | 0.0 | 0.0 | 0.00 | 0.00 | 0.00 | 88 | 1006.8 |
| 20260831084202 | 75 | 216 | 0.0 | 0.0 | 0.00 | 0.00 | 0.00 | 88 | 1006.8 |
| 20260831084103 | 75 | 216 | 0.0 | 0.0 | 0.00 | 0.00 | 0.00 | 88 | 1006.7 |
| 20260831084003 | 76 | 216 | 0.0 | 0.0 | 0.00 | 0.00 | 0.00 | 88 | 1006.7 |
| 20260831083903 | 76 | 216 | 0.0 | 0.0 | 0.00 | 0.00 | 0.00 | 88 | 1006.7 |
| 20260831083802 | 76 | 216 | 0.0 | 0.0 | 0.00 | 0.00 | 0.00 | 88 | 1006.7 |
| 20260831083702 | 75 | 216 | 0.0 | 0.0 | 0.00 | 0.00 | 0.00 | 88 | 1006.7 |
| 20260831083602 | 76 | 216 | 0.0 | 0.0 | 0.00 | 0.00 | 0.00 | 88 | 1006.7 |
| 20260831083502 | 76 | 216 | 0.0 | 0.0 | 0.00 | 0.00 | 0.00 | 88 | 1006.8 |
| 20260831083402 | 76 | 216 | 0.0 | 0.0 | 0.00 | 0.00 | 0.00 | 88 | 1006.7 |
| 20260831083302 | 76 | 216 | 0.0 | 0.0 | 0.00 | 0.00 | 0.00 | 88 | 1006.7 |
| 20260831083202 | 76 | 216 | 0.0 | 0.0 | 0.00 | 0.00 | 0.00 | 88 | 1006.8 |
| 20260831083102 | 76 | 216 | 0.0 | 0.0 | 0.00 | 0.00 | 0.00 | 88 | 1006.8 |
| 20260831083003 | 76 | 216 | 0.0 | 0.0 | 0.00 | 0.00 | 0.00 | 88 | 1006.8 |
| 20260831082904 | 76 | 216 | 0.0 | 0.0 | 0.00 | 0.00 | 0.00 | 88 | 1006.8 |
| 20260831082803 | 76 | 216 | 0.0 | 0.0 | 0.00 | 0.00 | 0.00 | 88 | 1006.8 |
| 20260831082702 | 76 | 216 | 0.0 | 0.0 | 0.00 | 0.00 | 0.00 | 88 | 1006.8 |
| 20260831082602 | 76 | 216 | 0.0 | 0.0 | 0.00 | 0.00 | 0.00 | 88 | 1006.8 |
| 20260831082502 | 76 | 216 | 0.0 | 0.0 | 0.00 | 0.00 | 0.00 | 88 | 1006.7 |
| 20260831082402 | 76 | 216 | 0.0 | 0.0 | 0.00 | 0.00 | 0.00 | 88 | 1006.8 |
| 20260831082306 | 76 | 216 | 0.0 | 0.0 | 0.00 | 0.00 | 0.00 | 87 | 1006.8 |
| 20260831082202 | 76 | 216 | 0.0 | 0.0 | 0.00 | 0.00 | 0.00 | 87 | 1006.8 |
| 20260831082102 | 76 | 216 | 0.0 | 0.0 | 0.00 | 0.00 | 0.00 | 87 | 1006.8 |
| 20260831082003 | 76 | 216 | 0.0 | 0.0 | 0.00 | 0.00 | 0.00 | 87 | 1006.8 |
| 20260831081903 | 76 | 216 | 0.0 | 0.0 | 0.00 | 0.00 | 0.00 | 87 | 1006.8 |
| 20260831081802 | 76 | 216 | 0.0 | 0.0 | 0.00 | 0.00 | 0.00 | 87 | 1006.8 |
| 20260831081700 | 76 | 216 | 0.0 | 0.0 | 0.00 | 0.00 | 0.00 | 87 | 1006.8 |
| 20260831081558 | 76 | 216 | 0.0 | 0.0 | 0.00 | 0.00 | 0.00 | 87 | 1006.8 |
| 20260831081457 | 76 | 216 | 0.0 | 0.0 | 0.00 | 0.00 | 0.00 | 87 | 1006.8 |
| 20260831081355 | 76 | 216 | 0.0 | 0.0 | 0.00 | 0.00 | 0.00 | 87 | 1006.8 |
| 20260831081249 | 76 | 216 | 0.0 | 0.0 | 0.00 | 0.00 | 0.00 | 87 | 1006.8 |
| 20260831081146 | 76 | 216 | 0.0 | 0.0 | 0.00 | 0.00 | 0.00 | 87 | 1006.8 |
| 20260831081042 | 76 | 216 | 0.0 | 0.0 | 0.00 | 0.00 | 0.00 | 87 | 1006.9 |
| 20260831080942 | 76 | 216 | 0.0 | 0.0 | 0.00 | 0.00 | 0.00 | 87 | 1006.8 |
| 20260831080842 | 76 | 216 | 0.0 | 0.0 | 0.00 | 0.00 | 0.00 | 87 | 1006.9 |
| 20260831080732 | 76 | 216 | 0.0 | 0.0 | 0.00 | 0.00 | 0.00 | 87 | 1006.9 |
| 20260831080632 | 76 | 216 | 0.0 | 0.0 | 0.00 | 0.00 | 0.00 | 87 | 1006.8 |
| 20260831080531 | 76 | 216 | 0.0 | 0.0 | 0.00 | 0.00 | 0.00 | 87 | 1006.8 |
| 20260831080432 | 76 | 216 | 0.0 | 0.0 | 0.00 | 0.00 | 0.00 | 87 | 1006.9 |
| 20260831080332 | 76 | 216 | 0.0 | 0.0 | 0.00 | 0.00 | 0.00 | 87 | 1006.9 |
| 20260831080233 | 76 | 216 | 0.0 | 0.0 | 0.00 | 0.00 | 0.00 | 87 | 1006.8 |
| 20260831080131 | 76 | 216 | 0.0 | 0.0 | 0.00 | 0.00 | 0.00 | 87 | 1006.8 |
| 20260831080032 | 76 | 216 | 0.0 | 0.0 | 0.00 | 0.00 | 0.00 | 87 | 1006.8 |
| 20260831075931 | 76 | 216 | 0.0 | 0.0 | 0.00 | 0.00 | 0.00 | 87 | 1006.8 |
| 20260831075832 | 76 | 216 | 0.0 | 0.0 | 0.00 | 0.00 | 0.00 | 87 | 1006.8 |
| 20260831075729 | 76 | 216 | 0.0 | 0.0 | 0.00 | 0.00 | 0.00 | 87 | 1006.8 |
| 20260831075626 | 76 | 216 | 0.0 | 0.0 | 0.00 | 0.00 | 0.00 | 86 | 1006.9 |
| 20260831075524 | 76 | 216 | 0.0 | 0.0 | 0.00 | 0.00 | 0.00 | 86 | 1006.8 |
| 20260831075409 | 77 | 216 | 0.0 | 0.0 | 0.00 | 0.00 | 0.00 | 87 | 1006.9 |
| 20260831075309 | 77 | 216 | 0.0 | 0.0 | 0.00 | 0.00 | 0.00 | 87 | 1006.8 |
| 20260831075208 | 77 | 216 | 0.0 | 0.0 | 0.00 | 0.00 | 0.00 | 86 | 1006.8 |
| 20260831075108 | 77 | 216 | 0.0 | 0.0 | 0.00 | 0.00 | 0.00 | 86 | 1006.8 |
| 20260831075009 | 77 | 216 | 0.0 | 0.0 | 0.00 | 0.00 | 0.00 | 86 | 1006.9 |
| 20260831074906 | 77 | 216 | 0.0 | 0.0 | 0.00 | 0.00 | 0.00 | 86 | 1006.9 |
| 20260831074806 | 77 | 216 | 0.0 | 0.0 | 0.00 | 0.00 | 0.00 | 86 | 1006.8 |
| 20260831074708 | 77 | 216 | 0.0 | 0.0 | 0.00 | 0.00 | 0.00 | 86 | 1006.7 |
| 20260831074606 | 77 | 216 | 0.0 | 0.0 | 0.00 | 0.00 | 0.00 | 87 | 1006.8 |
| 20260831074506 | 77 | 216 | 0.0 | 0.0 | 0.00 | 0.00 | 0.00 | 87 | 1006.8 |
| 20260831074406 | 77 | 216 | 0.0 | 0.0 | 0.00 | 0.00 | 0.00 | 86 | 1006.8 |
| 20260831074307 | 77 | 216 | 0.0 | 0.0 | 0.00 | 0.00 | 0.00 | 86 | 1006.8 |
| 20260831074206 | 77 | 216 | 0.0 | 0.0 | 0.00 | 0.00 | 0.00 | 86 | 1006.8 |
| 20260831074106 | 77 | 216 | 0.0 | 0.0 | 0.00 | 0.00 | 0.00 | 86 | 1006.8 |
| 20260831074007 | 77 | 216 | 0.0 | 0.0 | 0.00 | 0.00 | 0.00 | 86 | 1006.8 |
| 20260831073906 | 77 | 216 | 0.0 | 0.0 | 0.00 | 0.00 | 0.00 | 86 | 1006.7 |
| 20260831073806 | 77 | 216 | 0.0 | 0.0 | 0.00 | 0.00 | 0.00 | 86 | 1006.7 |
| 20260831073708 | 77 | 216 | 0.0 | 0.0 | 0.00 | 0.00 | 0.00 | 86 | 1006.8 |
| 20260831073606 | 77 | 216 | 0.0 | 0.0 | 0.00 | 0.00 | 0.00 | 86 | 1006.8 |
| 20260831073508 | 77 | 216 | 0.0 | 0.0 | 0.00 | 0.00 | 0.00 | 86 | 1006.7 |
| 20260831073408 | 77 | 216 | 0.0 | 0.0 | 0.00 | 0.00 | 0.00 | 86 | 1006.7 |
| 20260831073306 | 77 | 216 | 0.0 | 0.0 | 0.00 | 0.00 | 0.00 | 86 | 1006.7 |
| 20260831073206 | 77 | 216 | 0.0 | 0.0 | 0.00 | 0.00 | 0.00 | 86 | 1006.7 |
| 20260831073106 | 77 | 216 | 0.0 | 0.0 | 0.00 | 0.00 | 0.00 | 86 | 1006.8 |
| 20260831073006 | 77 | 216 | 0.0 | 0.0 | 0.00 | 0.00 | 0.00 | 86 | 1006.8 |
| 20260831072906 | 77 | 216 | 0.0 | 0.0 | 0.00 | 0.00 | 0.00 | 86 | 1006.8 |
| 20260831072808 | 77 | 216 | 0.0 | 0.0 | 0.00 | 0.00 | 0.00 | 86 | 1006.8 |
| 20260831072706 | 77 | 216 | 0.0 | 0.0 | 0.00 | 0.00 | 0.00 | 86 | 1006.7 |
| 20260831072606 | 77 | 216 | 0.0 | 0.0 | 0.00 | 0.00 | 0.00 | 86 | 1006.8 |
| 20260831072508 | 77 | 216 | 0.0 | 0.0 | 0.00 | 0.00 | 0.00 | 86 | 1006.8 |
| 20260831072406 | 77 | 216 | 0.0 | 0.0 | 0.00 | 0.00 | 0.00 | 86 | 1006.7 |
| 20260831072306 | 77 | 216 | 0.0 | 0.0 | 0.00 | 0.00 | 0.00 | 86 | 1006.7 |
| 20260831072207 | 77 | 216 | 0.0 | 0.0 | 0.00 | 0.00 | 0.00 | 86 | 1006.8 |
| 20260831072107 | 77 | 216 | 0.0 | 0.0 | 0.00 | 0.00 | 0.00 | 86 | 1006.8 |
| 20260831072006 | 77 | 216 | 0.0 | 0.0 | 0.00 | 0.00 | 0.00 | 86 | 1006.8 |
| 20260831071907 | 77 | 216 | 0.0 | 0.0 | 0.00 | 0.00 | 0.00 | 86 | 1006.8 |
| 20260831071807 | 77 | 216 | 0.0 | 0.0 | 0.00 | 0.00 | 0.00 | 86 | 1006.8 |
| 20260831071707 | 77 | 216 | 0.0 | 0.0 | 0.00 | 0.00 | 0.00 | 86 | 1006.7 |
| 20260831071605 | 77 | 216 | 0.0 | 0.0 | 0.00 | 0.00 | 0.00 | 86 | 1006.7 |
| 20260831071506 | 77 | 216 | 0.0 | 0.0 | 0.00 | 0.00 | 0.00 | 86 | 1006.8 |
| 20260831071408 | 77 | 216 | 0.0 | 0.0 | 0.00 | 0.00 | 0.00 | 86 | 1006.8 |
| 20260831071306 | 77 | 216 | 0.0 | 0.0 | 0.00 | 0.00 | 0.00 | 85 | 1006.8 |
| 20260831071206 | 77 | 216 | 0.0 | 0.0 | 0.00 | 0.00 | 0.00 | 85 | 1006.9 |
| 20260831071107 | 77 | 216 | 0.0 | 0.0 | 0.00 | 0.00 | 0.00 | 85 | 1006.9 |
| 20260831071006 | 77 | 216 | 0.0 | 0.0 | 0.00 | 0.00 | 0.00 | 85 | 1007.0 |
| 20260831070905 | 77 | 216 | 0.0 | 0.0 | 0.00 | 0.00 | 0.00 | 85 | 1007.0 |
| 20260831070805 | 77 | 216 | 0.0 | 0.0 | 0.00 | 0.00 | 0.00 | 85 | 1007.0 |
| 20260831070705 | 77 | 216 | 0.0 | 0.0 | 0.00 | 0.00 | 0.00 | 85 | 1007.0 |
| 20260831070606 | 77 | 216 | 0.0 | 0.0 | 0.00 | 0.00 | 0.00 | 85 | 1007.0 |
| 20260831070506 | 77 | 216 | 0.0 | 0.0 | 0.00 | 0.00 | 0.00 | 85 | 1006.9 |
| 20260831070405 | 77 | 216 | 0.0 | 0.0 | 0.00 | 0.00 | 0.00 | 85 | 1007.0 |
| 20260831070306 | 77 | 216 | 0.0 | 0.0 | 0.00 | 0.00 | 0.00 | 85 | 1007.0 |
| 20260831070205 | 77 | 216 | 0.0 | 0.0 | 0.00 | 0.00 | 0.00 | 85 | 1007.0 |
| 20260831070105 | 77 | 216 | 0.0 | 0.0 | 0.00 | 0.00 | 0.00 | 85 | 1007.0 |
| 20260831070007 | 77 | 216 | 0.0 | 0.0 | 0.00 | 0.00 | 0.00 | 85 | 1007.0 |
| 20260831065905 | 77 | 216 | 0.0 | 0.0 | 0.00 | 0.00 | 0.00 | 85 | 1007.0 |
| 20260831065805 | 77 | 216 | 0.0 | 0.0 | 0.00 | 0.00 | 0.00 | 85 | 1007.0 |
| 20260831065706 | 78 | 216 | 0.0 | 0.0 | 0.00 | 0.00 | 0.00 | 85 | 1007.0 |
| 20260831065607 | 78 | 216 | 0.0 | 0.0 | 0.00 | 0.00 | 0.00 | 85 | 1007.0 |
| 20260831065507 | 78 | 216 | 0.0 | 0.0 | 0.00 | 0.00 | 0.00 | 85 | 1007.0 |
| 20260831065407 | 78 | 216 | 0.0 | 0.0 | 0.00 | 0.00 | 0.00 | 85 | 1007.0 |
| 20260831065306 | 78 | 216 | 0.0 | 0.0 | 0.00 | 0.00 | 0.00 | 85 | 1007.0 |
| 20260831065205 | 78 | 216 | 0.0 | 0.0 | 0.00 | 0.00 | 0.00 | 85 | 1007.0 |
| 20260831065107 | 78 | 216 | 0.0 | 0.0 | 0.00 | 0.00 | 0.00 | 85 | 1007.1 |
| 20260831065005 | 78 | 216 | 0.0 | 0.0 | 0.00 | 0.00 | 0.00 | 85 | 1007.1 |
| 20260831064907 | 78 | 216 | 0.0 | 0.0 | 0.00 | 0.00 | 0.00 | 85 | 1007.0 |
| 20260831064806 | 78 | 216 | 0.0 | 0.0 | 0.00 | 0.00 | 0.00 | 85 | 1007.0 |
| 20260831064706 | 78 | 216 | 0.0 | 0.0 | 0.00 | 0.00 | 0.00 | 85 | 1007.0 |
| 20260831064605 | 78 | 216 | 0.0 | 0.0 | 0.00 | 0.00 | 0.00 | 85 | 1007.0 |
| 20260831064505 | 78 | 216 | 0.0 | 0.0 | 0.00 | 0.00 | 0.00 | 85 | 1007.0 |
| 20260831064405 | 78 | 216 | 0.0 | 0.0 | 0.00 | 0.00 | 0.00 | 85 | 1007.0 |
| 20260831064311 | 78 | 216 | 0.0 | 0.0 | 0.00 | 0.00 | 0.00 | 85 | 1007.0 |
| 20260831064206 | 78 | 216 | 0.0 | 0.0 | 0.00 | 0.00 | 0.00 | 85 | 1007.0 |
| 20260831064106 | 78 | 216 | 0.0 | 0.0 | 0.00 | 0.00 | 0.00 | 85 | 1007.0 |
| 20260831064007 | 78 | 216 | 0.0 | 0.0 | 0.00 | 0.00 | 0.00 | 85 | 1007.0 |
| 20260831063905 | 78 | 216 | 0.0 | 0.0 | 0.00 | 0.00 | 0.00 | 85 | 1007.1 |
| 20260831063806 | 78 | 216 | 0.0 | 0.0 | 0.00 | 0.00 | 0.00 | 85 | 1007.1 |
| 20260831063705 | 78 | 216 | 0.0 | 0.0 | 0.00 | 0.00 | 0.00 | 84 | 1007.0 |
| 20260831063607 | 78 | 216 | 0.0 | 0.0 | 0.00 | 0.00 | 0.00 | 84 | 1007.1 |
| 20260831063507 | 78 | 216 | 0.0 | 0.0 | 0.00 | 0.00 | 0.00 | 84 | 1007.1 |
| 20260831063407 | 78 | 216 | 0.0 | 0.0 | 0.00 | 0.00 | 0.00 | 84 | 1007.1 |
| 20260831063305 | 78 | 216 | 0.0 | 0.0 | 0.00 | 0.00 | 0.00 | 84 | 1007.1 |
| 20260831063206 | 78 | 216 | 0.0 | 0.0 | 0.00 | 0.00 | 0.00 | 84 | 1007.2 |
| 20260831063105 | 78 | 216 | 0.0 | 0.0 | 0.00 | 0.00 | 0.00 | 84 | 1007.1 |
| 20260831063005 | 78 | 216 | 0.0 | 0.0 | 0.00 | 0.00 | 0.00 | 84 | 1007.1 |
| 20260831062906 | 78 | 216 | 0.0 | 0.0 | 0.00 | 0.00 | 0.00 | 84 | 1007.1 |
| 20260831062805 | 78 | 216 | 0.0 | 0.0 | 0.00 | 0.00 | 0.00 | 84 | 1007.1 |
| 20260831062706 | 78 | 216 | 0.0 | 0.0 | 0.00 | 0.00 | 0.00 | 84 | 1007.1 |
| 20260831062605 | 78 | 216 | 0.0 | 0.0 | 0.00 | 0.00 | 0.00 | 84 | 1007.1 |
| 20260831062505 | 78 | 216 | 0.0 | 0.0 | 0.00 | 0.00 | 0.00 | 84 | 1007.1 |
| 20260831062405 | 78 | 216 | 0.0 | 0.0 | 0.00 | 0.00 | 0.00 | 84 | 1007.0 |
| 20260831062307 | 78 | 216 | 0.0 | 0.0 | 0.00 | 0.00 | 0.00 | 84 | 1007.1 |
| 20260831062205 | 78 | 216 | 0.0 | 0.0 | 0.00 | 0.00 | 0.00 | 84 | 1007.0 |
| 20260831062106 | 78 | 216 | 0.0 | 0.0 | 0.00 | 0.00 | 0.00 | 84 | 1007.0 |
| 20260831062006 | 78 | 216 | 0.0 | 0.0 | 0.00 | 0.00 | 0.00 | 84 | 1007.0 |
| 20260831061905 | 78 | 216 | 0.0 | 0.0 | 0.00 | 0.00 | 0.00 | 84 | 1007.1 |
| 20260831061806 | 78 | 216 | 0.0 | 0.0 | 0.00 | 0.00 | 0.00 | 84 | 1007.0 |
| 20260831061707 | 78 | 216 | 0.0 | 0.0 | 0.00 | 0.00 | 0.00 | 84 | 1007.1 |
| 20260831061606 | 78 | 216 | 0.0 | 0.0 | 0.00 | 0.00 | 0.00 | 84 | 1007.0 |
| 20260831061505 | 78 | 216 | 0.0 | 0.0 | 0.00 | 0.00 | 0.00 | 83 | 1007.0 |
| 20260831061405 | 78 | 216 | 0.0 | 0.0 | 0.00 | 0.00 | 0.00 | 83 | 1007.0 |
| 20260831061305 | 78 | 216 | 0.0 | 0.0 | 0.00 | 0.00 | 0.00 | 84 | 1007.0 |
| 20260831061205 | 78 | 216 | 0.0 | 0.0 | 0.00 | 0.00 | 0.00 | 84 | 1007.0 |
| 20260831061106 | 78 | 216 | 0.0 | 0.0 | 0.00 | 0.00 | 0.00 | 83 | 1007.0 |
| 20260831061006 | 78 | 216 | 0.0 | 0.0 | 0.00 | 0.00 | 0.00 | 83 | 1007.0 |
| 20260831060904 | 78 | 216 | 0.0 | 0.0 | 0.00 | 0.00 | 0.00 | 83 | 1007.0 |
| 20260831060804 | 78 | 216 | 0.0 | 0.0 | 0.00 | 0.00 | 0.00 | 83 | 1007.0 |
| 20260831060705 | 78 | 216 | 0.0 | 0.0 | 0.00 | 0.00 | 0.00 | 83 | 1007.0 |
| 20260831060604 | 78 | 216 | 0.0 | 0.0 | 0.00 | 0.00 | 0.00 | 83 | 1007.1 |
| 20260831060506 | 78 | 216 | 0.0 | 0.0 | 0.00 | 0.00 | 0.00 | 83 | 1007.1 |
| 20260831060405 | 78 | 216 | 0.0 | 0.0 | 0.00 | 0.00 | 0.00 | 83 | 1007.1 |
| 20260831060307 | 78 | 216 | 0.0 | 0.0 | 0.00 | 0.00 | 0.00 | 83 | 1007.1 |
| 20260831060204 | 78 | 216 | 0.0 | 0.0 | 0.00 | 0.00 | 0.00 | 83 | 1007.1 |
| 20260831060104 | 79 | 216 | 0.0 | 0.0 | 0.00 | 0.00 | 0.00 | 83 | 1007.1 |
| 20260831060006 | 79 | 216 | 0.0 | 0.0 | 0.00 | 0.00 | 0.00 | 83 | 1007.2 |
| 20260831055904 | 79 | 216 | 0.0 | 0.0 | 0.00 | 0.00 | 0.00 | 83 | 1007.1 |
| 20260831055806 | 79 | 216 | 0.0 | 0.0 | 0.00 | 0.00 | 0.00 | 83 | 1007.1 |
| 20260831055704 | 79 | 216 | 0.0 | 0.0 | 0.00 | 0.00 | 0.00 | 83 | 1007.1 |
| 20260831055604 | 79 | 216 | 0.0 | 0.0 | 0.00 | 0.00 | 0.00 | 83 | 1007.1 |
| 20260831055505 | 79 | 216 | 0.0 | 0.0 | 0.00 | 0.00 | 0.00 | 83 | 1007.1 |
| 20260831055404 | 79 | 216 | 0.0 | 0.0 | 0.00 | 0.00 | 0.00 | 83 | 1007.1 |
| 20260831055306 | 79 | 216 | 0.0 | 0.0 | 0.00 | 0.00 | 0.00 | 82 | 1007.1 |
| 20260831055204 | 79 | 216 | 0.0 | 0.0 | 0.00 | 0.00 | 0.00 | 82 | 1007.1 |
| 20260831055105 | 79 | 216 | 0.0 | 0.0 | 0.00 | 0.00 | 0.00 | 82 | 1007.1 |
| 20260831055004 | 79 | 216 | 0.0 | 0.0 | 0.00 | 0.00 | 0.00 | 83 | 1007.1 |
| 20260831054904 | 79 | 216 | 0.0 | 0.0 | 0.00 | 0.00 | 0.00 | 82 | 1007.1 |
| 20260831054804 | 79 | 216 | 0.0 | 0.0 | 0.00 | 0.00 | 0.00 | 82 | 1007.1 |
| 20260831054704 | 79 | 216 | 0.0 | 0.0 | 0.00 | 0.00 | 0.00 | 82 | 1007.2 |
| 20260831054604 | 79 | 216 | 0.0 | 0.0 | 0.00 | 0.00 | 0.00 | 82 | 1007.1 |
| 20260831054504 | 79 | 216 | 0.0 | 0.0 | 0.00 | 0.00 | 0.00 | 82 | 1007.2 |
| 20260831054404 | 79 | 216 | 0.0 | 0.0 | 0.00 | 0.00 | 0.00 | 82 | 1007.1 |
| 20260831054303 | 79 | 216 | 0.0 | 0.0 | 0.00 | 0.00 | 0.00 | 82 | 1007.1 |
| 20260831054204 | 79 | 216 | 0.0 | 0.0 | 0.00 | 0.00 | 0.00 | 82 | 1007.2 |
| 20260831054104 | 79 | 216 | 0.0 | 0.0 | 0.00 | 0.00 | 0.00 | 82 | 1007.1 |
| 20260831054004 | 79 | 216 | 0.0 | 0.0 | 0.00 | 0.00 | 0.00 | 82 | 1007.1 |
| 20260831053905 | 79 | 216 | 0.0 | 0.0 | 0.00 | 0.00 | 0.00 | 82 | 1007.1 |
| 20260831053804 | 79 | 216 | 0.0 | 0.0 | 0.00 | 0.00 | 0.00 | 82 | 1007.1 |
| 20260831053704 | 79 | 216 | 0.0 | 0.0 | 0.00 | 0.00 | 0.00 | 82 | 1007.0 |
| 20260831053604 | 79 | 216 | 0.0 | 0.0 | 0.00 | 0.00 | 0.00 | 82 | 1007.0 |
| 20260831053504 | 79 | 216 | 0.0 | 0.0 | 0.00 | 0.00 | 0.00 | 82 | 1006.9 |
| 20260831053404 | 79 | 216 | 0.0 | 0.0 | 0.00 | 0.00 | 0.00 | 82 | 1006.9 |
| 20260831053305 | 79 | 216 | 0.0 | 0.0 | 0.00 | 0.00 | 0.00 | 82 | 1006.9 |
| 20260831053204 | 79 | 216 | 0.0 | 0.0 | 0.00 | 0.00 | 0.00 | 82 | 1006.9 |
| 20260831053103 | 79 | 216 | 0.0 | 0.0 | 0.00 | 0.00 | 0.00 | 82 | 1006.9 |
| 20260831053005 | 79 | 216 | 0.0 | 0.0 | 0.00 | 0.00 | 0.00 | 82 | 1006.9 |
| 20260831052904 | 79 | 216 | 0.0 | 0.0 | 0.00 | 0.00 | 0.00 | 82 | 1006.9 |
| 20260831052805 | 79 | 216 | 0.0 | 0.0 | 0.00 | 0.00 | 0.00 | 82 | 1006.9 |
| 20260831052703 | 79 | 216 | 0.0 | 0.0 | 0.00 | 0.00 | 0.00 | 82 | 1007.0 |
| 20260831052605 | 79 | 216 | 0.0 | 0.0 | 0.00 | 0.00 | 0.00 | 82 | 1007.0 |
| 20260831052503 | 79 | 216 | 0.0 | 0.0 | 0.00 | 0.00 | 0.00 | 82 | 1007.0 |
| 20260831052404 | 79 | 216 | 0.0 | 0.0 | 0.00 | 0.00 | 0.00 | 82 | 1007.0 |
| 20260831052306 | 79 | 216 | 0.0 | 0.0 | 0.00 | 0.00 | 0.00 | 82 | 1007.0 |
| 20260831052203 | 79 | 216 | 0.0 | 0.0 | 0.00 | 0.00 | 0.00 | 81 | 1006.9 |
| 20260831052103 | 79 | 216 | 0.0 | 0.0 | 0.00 | 0.00 | 0.00 | 81 | 1007.0 |
| 20260831052004 | 79 | 216 | 0.0 | 0.0 | 0.00 | 0.00 | 0.00 | 81 | 1007.0 |
| 20260831051904 | 79 | 216 | 0.0 | 0.0 | 0.00 | 0.00 | 0.00 | 81 | 1006.9 |
| 20260831051804 | 79 | 216 | 0.0 | 0.0 | 0.00 | 0.00 | 0.00 | 82 | 1007.0 |
| 20260831051704 | 79 | 216 | 0.0 | 0.0 | 0.00 | 0.00 | 0.00 | 81 | 1006.9 |
| 20260831051603 | 79 | 216 | 0.0 | 0.0 | 0.00 | 0.00 | 0.00 | 81 | 1007.0 |
| 20260831051505 | 79 | 216 | 0.0 | 0.0 | 0.00 | 0.00 | 0.00 | 81 | 1007.0 |
| 20260831051404 | 79 | 216 | 0.0 | 0.0 | 0.00 | 0.00 | 0.00 | 81 | 1007.0 |
| 20260831051303 | 79 | 216 | 0.0 | 0.0 | 0.00 | 0.00 | 0.00 | 81 | 1007.1 |
| 20260831051205 | 79 | 216 | 0.0 | 0.0 | 0.00 | 0.00 | 0.00 | 81 | 1007.0 |
| 20260831051103 | 79 | 216 | 0.0 | 0.0 | 0.00 | 0.00 | 0.00 | 81 | 1007.0 |
| 20260831051004 | 79 | 216 | 0.0 | 0.0 | 0.00 | 0.00 | 0.00 | 81 | 1007.0 |
| 20260831050904 | 79 | 216 | 0.0 | 0.0 | 0.00 | 0.00 | 0.00 | 81 | 1006.9 |
| 20260831050804 | 80 | 216 | 0.0 | 0.0 | 0.00 | 0.00 | 0.00 | 81 | 1006.9 |
| 20260831050703 | 80 | 216 | 0.0 | 0.0 | 0.00 | 0.00 | 0.00 | 81 | 1007.0 |
| 20260831050603 | 80 | 216 | 0.0 | 0.0 | 0.00 | 0.00 | 0.00 | 81 | 1007.0 |
| 20260831050504 | 80 | 216 | 0.0 | 0.0 | 0.00 | 0.00 | 0.00 | 81 | 1007.0 |
| 20260831050404 | 80 | 216 | 0.0 | 0.0 | 0.00 | 0.00 | 0.00 | 80 | 1007.0 |
| 20260831050304 | 80 | 216 | 0.0 | 0.0 | 0.00 | 0.00 | 0.00 | 80 | 1006.9 |
| 20260831050203 | 80 | 216 | 0.0 | 0.0 | 0.00 | 0.00 | 0.00 | 80 | 1006.9 |
| 20260831050003 | 80 | 216 | 0.0 | 0.0 | 0.00 | 0.00 | 0.00 | 80 | 1006.9 |
| 20260831045904 | 80 | 216 | 0.0 | 0.0 | 0.00 | 0.00 | 0.00 | 80 | 1006.9 |
| 20260831045804 | 80 | 216 | 0.0 | 0.0 | 0.00 | 0.00 | 0.00 | 80 | 1007.0 |
| 20260831045703 | 80 | 216 | 0.0 | 0.0 | 0.00 | 0.00 | 0.00 | 80 | 1006.9 |
| 20260831045604 | 80 | 216 | 0.0 | 0.0 | 0.00 | 0.00 | 0.00 | 80 | 1006.9 |
| 20260831045505 | 80 | 216 | 0.0 | 0.0 | 0.00 | 0.00 | 0.00 | 80 | 1007.0 |
| 20260831045404 | 80 | 216 | 0.0 | 0.0 | 0.00 | 0.00 | 0.00 | 80 | 1007.0 |
| 20260831045305 | 80 | 216 | 0.0 | 0.0 | 0.00 | 0.00 | 0.00 | 80 | 1006.9 |
| 20260831045203 | 80 | 216 | 0.0 | 0.0 | 0.00 | 0.00 | 0.00 | 80 | 1006.9 |
| 20260831045104 | 80 | 216 | 0.0 | 0.0 | 0.00 | 0.00 | 0.00 | 80 | 1006.9 |
| 20260831045004 | 80 | 216 | 0.0 | 0.0 | 0.00 | 0.00 | 0.00 | 80 | 1006.9 |
| 20260831044904 | 80 | 216 | 0.0 | 0.0 | 0.00 | 0.00 | 0.00 | 79 | 1006.9 |
| 20260831044803 | 80 | 216 | 0.0 | 0.0 | 0.00 | 0.00 | 0.00 | 79 | 1006.9 |
| 20260831044703 | 80 | 216 | 0.0 | 0.0 | 0.00 | 0.00 | 0.00 | 79 | 1006.9 |
| 20260831044604 | 80 | 216 | 0.0 | 0.0 | 0.00 | 0.00 | 0.00 | 79 | 1006.9 |
| 20260831044502 | 80 | 216 | 0.0 | 0.0 | 0.00 | 0.00 | 0.00 | 79 | 1006.9 |
| 20260831044402 | 80 | 216 | 0.0 | 0.0 | 0.00 | 0.00 | 0.00 | 79 | 1006.9 |
| 20260831044301 | 81 | 216 | 0.0 | 0.0 | 0.00 | 0.00 | 0.00 | 79 | 1006.9 |
| 20260831044158 | 80 | 216 | 0.0 | 0.0 | 0.00 | 0.00 | 0.00 | 79 | 1006.9 |
| 20260831044058 | 81 | 216 | 0.0 | 0.0 | 0.00 | 0.00 | 0.00 | 79 | 1006.7 |
| 20260831043956 | 81 | 216 | 0.0 | 0.0 | 0.00 | 0.00 | 0.00 | 79 | 1006.7 |
| 20260831043853 | 81 | 216 | 0.0 | 0.0 | 0.00 | 0.00 | 0.00 | 79 | 1006.7 |
| 20260831043755 | 81 | 216 | 0.0 | 0.0 | 0.00 | 0.00 | 0.00 | 79 | 1006.8 |
| 20260831043654 | 81 | 216 | 0.0 | 0.0 | 0.00 | 0.00 | 0.00 | 79 | 1006.8 |
| 20260831043545 | 81 | 216 | 0.0 | 0.0 | 0.00 | 0.00 | 0.00 | 79 | 1006.8 |
| 20260831043445 | 81 | 216 | 0.0 | 0.0 | 0.00 | 0.00 | 0.00 | 79 | 1006.8 |
| 20260831043342 | 81 | 216 | 0.0 | 0.0 | 0.00 | 0.00 | 0.00 | 78 | 1006.8 |
| 20260831043239 | 81 | 216 | 0.0 | 0.0 | 0.00 | 0.00 | 0.00 | 78 | 1006.7 |
| 20260831043135 | 81 | 216 | 0.0 | 0.0 | 0.00 | 0.00 | 0.00 | 78 | 1006.7 |
| 20260831043031 | 81 | 216 | 0.0 | 0.0 | 0.00 | 0.00 | 0.00 | 78 | 1006.7 |
| 20260831042931 | 81 | 216 | 0.0 | 0.0 | 0.00 | 0.00 | 0.00 | 78 | 1006.7 |
| 20260831042831 | 81 | 216 | 0.0 | 0.0 | 0.00 | 0.00 | 0.00 | 78 | 1006.7 |
| 20260831042732 | 81 | 216 | 0.0 | 0.0 | 0.00 | 0.00 | 0.00 | 78 | 1006.8 |
| 20260831042633 | 81 | 216 | 0.0 | 0.0 | 0.00 | 0.00 | 0.00 | 78 | 1006.7 |
| 20260831042532 | 81 | 216 | 0.0 | 0.0 | 0.00 | 0.00 | 0.00 | 78 | 1006.7 |
| 20260831042431 | 81 | 216 | 0.0 | 0.0 | 0.00 | 0.00 | 0.00 | 78 | 1006.8 |
| 20260831042332 | 81 | 216 | 0.0 | 0.0 | 0.00 | 0.00 | 0.00 | 78 | 1006.8 |
| 20260831042234 | 81 | 216 | 0.0 | 0.0 | 0.00 | 0.00 | 0.00 | 78 | 1006.7 |
| 20260831042132 | 81 | 216 | 0.0 | 0.0 | 0.00 | 0.00 | 0.00 | 78 | 1006.7 |
| 20260831042031 | 81 | 216 | 0.0 | 0.0 | 0.00 | 0.00 | 0.00 | 78 | 1006.7 |
| 20260831041932 | 81 | 216 | 0.0 | 0.0 | 0.00 | 0.00 | 0.00 | 78 | 1006.7 |
| 20260831041832 | 81 | 216 | 0.0 | 0.0 | 0.00 | 0.00 | 0.00 | 78 | 1006.7 |
| 20260831041731 | 81 | 216 | 0.0 | 0.0 | 0.00 | 0.00 | 0.00 | 78 | 1006.6 |
| 20260831041630 | 81 | 216 | 0.0 | 0.0 | 0.00 | 0.00 | 0.00 | 78 | 1006.7 |
| 20260831041529 | 81 | 216 | 0.0 | 0.0 | 0.00 | 0.00 | 0.00 | 78 | 1006.7 |
| 20260831041431 | 81 | 216 | 0.0 | 0.0 | 0.00 | 0.00 | 0.00 | 78 | 1006.6 |
| 20260831041329 | 82 | 216 | 0.0 | 0.0 | 0.00 | 0.00 | 0.00 | 78 | 1006.6 |
| 20260831041227 | 82 | 216 | 0.0 | 0.0 | 0.00 | 0.00 | 0.00 | 78 | 1006.7 |
| 20260831041126 | 82 | 216 | 0.0 | 0.0 | 0.00 | 0.00 | 0.00 | 77 | 1006.6 |
| 20260831041027 | 82 | 216 | 0.0 | 0.0 | 0.00 | 0.00 | 0.00 | 77 | 1006.6 |
| 20260831040921 | 82 | 216 | 0.0 | 0.0 | 0.00 | 0.00 | 0.00 | 77 | 1006.6 |
| 20260831040805 | 82 | 216 | 0.0 | 0.0 | 0.00 | 0.00 | 0.00 | 77 | 1006.6 |
| 20260831040703 | 82 | 216 | 0.0 | 0.0 | 0.00 | 0.00 | 0.00 | 77 | 1006.6 |
| 20260831040603 | 82 | 216 | 0.0 | 0.0 | 0.00 | 0.00 | 0.00 | 77 | 1006.6 |
| 20260831040503 | 82 | 216 | 0.0 | 0.0 | 0.00 | 0.00 | 0.00 | 77 | 1006.5 |
| 20260831040404 | 82 | 216 | 0.0 | 0.0 | 0.00 | 0.00 | 0.00 | 77 | 1006.6 |
| 20260831040301 | 82 | 216 | 0.0 | 0.0 | 0.00 | 0.00 | 0.00 | 77 | 1006.6 |
| 20260831040202 | 82 | 216 | 0.0 | 0.0 | 0.00 | 0.00 | 0.00 | 77 | 1006.5 |
| 20260831040003 | 82 | 216 | 0.0 | 0.0 | 0.00 | 0.00 | 0.00 | 77 | 1006.5 |
| 20260831035859 | 82 | 216 | 0.0 | 0.0 | 0.00 | 0.00 | 0.00 | 77 | 1006.5 |
| 20260831035802 | 82 | 216 | 0.0 | 0.0 | 0.00 | 0.00 | 0.00 | 77 | 1006.5 |
| 20260831035659 | 82 | 216 | 0.0 | 0.0 | 0.00 | 0.00 | 0.00 | 77 | 1006.4 |
| 20260831035601 | 82 | 216 | 0.0 | 0.0 | 0.00 | 0.00 | 0.00 | 77 | 1006.4 |
| 20260831035458 | 82 | 216 | 0.0 | 0.0 | 0.00 | 0.00 | 0.00 | 77 | 1006.3 |
| 20260831035353 | 82 | 216 | 0.0 | 0.0 | 0.00 | 0.00 | 0.00 | 77 | 1006.3 |
| 20260831035251 | 82 | 216 | 0.0 | 0.0 | 0.00 | 0.00 | 0.00 | 77 | 1006.3 |
| 20260831035141 | 82 | 214 | 0.0 | 0.0 | 0.00 | 0.00 | 0.00 | 77 | 1006.2 |
| 20260831035031 | 82 | 216 | 0.0 | 0.0 | 0.00 | 0.00 | 0.00 | 77 | 1006.3 |
| 20260831034931 | 82 | 214 | 0.0 | 0.0 | 0.00 | 0.00 | 0.00 | 76 | 1006.3 |
| 20260831034831 | 82 | 214 | 0.0 | 1.0 | 0.00 | 0.00 | 0.00 | 76 | 1006.3 |
| 20260831034733 | 82 | 214 | 0.0 | 1.0 | 0.00 | 0.00 | 0.00 | 76 | 1006.2 |
| 20260831034627 | 82 | 214 | 0.0 | 1.0 | 0.00 | 0.00 | 0.00 | 76 | 1006.3 |
| 20260831034523 | 82 | 216 | 0.0 | 1.0 | 0.00 | 0.00 | 0.00 | 76 | 1006.1 |
| 20260831034422 | 82 | 214 | 0.0 | 1.0 | 0.00 | 0.00 | 0.00 | 76 | 1006.1 |
| 20260831034319 | 82 | 214 | 0.0 | 1.0 | 0.00 | 0.00 | 0.00 | 76 | 1006.2 |
| 20260831034221 | 82 | 214 | 0.0 | 1.0 | 0.00 | 0.00 | 0.00 | 76 | 1006.2 |
| 20260831034104 | 82 | 214 | 0.0 | 1.0 | 0.00 | 0.00 | 0.00 | 76 | 1006.1 |
| 20260831034007 | 82 | 214 | 0.0 | 1.0 | 0.00 | 0.00 | 0.00 | 76 | 1006.2 |
| 20260831033902 | 82 | 214 | 0.0 | 1.0 | 0.00 | 0.00 | 0.00 | 76 | 1006.1 |
| 20260831033802 | 82 | 245 | 0.0 | 0.0 | 0.00 | 0.00 | 0.00 | 76 | 1006.2 |
| 20260831033702 | 82 | 245 | 0.0 | 0.0 | 0.00 | 0.00 | 0.00 | 76 | 1006.2 |
| 20260831033602 | 82 | 245 | 0.0 | 0.0 | 0.00 | 0.00 | 0.00 | 76 | 1006.2 |
| 20260831033504 | 82 | 245 | 0.0 | 0.0 | 0.00 | 0.00 | 0.00 | 76 | 1006.2 |
| 20260831033402 | 82 | 245 | 0.0 | 2.0 | 0.00 | 0.00 | 0.00 | 76 | 1006.2 |
| 20260831033302 | 82 | 245 | 0.0 | 2.0 | 0.00 | 0.00 | 0.00 | 76 | 1006.1 |
| 20260831033202 | 82 | 245 | 0.0 | 2.0 | 0.00 | 0.00 | 0.00 | 76 | 1006.2 |
| 20260831033102 | 82 | 245 | 0.0 | 2.0 | 0.00 | 0.00 | 0.00 | 76 | 1006.2 |
| 20260831033002 | 82 | 245 | 0.0 | 2.0 | 0.00 | 0.00 | 0.00 | 76 | 1006.2 |
| 20260831032903 | 82 | 245 | 0.0 | 2.0 | 0.00 | 0.00 | 0.00 | 76 | 1006.2 |
| 20260831032802 | 82 | 245 | 0.0 | 2.0 | 0.00 | 0.00 | 0.00 | 76 | 1006.2 |
| 20260831032703 | 82 | 245 | 0.0 | 2.0 | 0.00 | 0.00 | 0.00 | 76 | 1006.2 |
| 20260831032602 | 82 | 245 | 0.0 | 2.0 | 0.00 | 0.00 | 0.00 | 76 | 1006.2 |
| 20260831032503 | 82 | 245 | 0.0 | 2.0 | 0.00 | 0.00 | 0.00 | 76 | 1006.1 |
| 20260831032403 | 82 | 245 | 0.0 | 0.0 | 0.00 | 0.00 | 0.00 | 76 | 1006.2 |
| 20260831032306 | 82 | 245 | 0.0 | 0.0 | 0.00 | 0.00 | 0.00 | 76 | 1006.2 |
| 20260831032202 | 82 | 245 | 0.0 | 0.0 | 0.00 | 0.00 | 0.00 | 76 | 1006.2 |
| 20260831032103 | 82 | 245 | 0.0 | 0.0 | 0.00 | 0.00 | 0.00 | 76 | 1006.1 |
| 20260831032000 | 82 | 245 | 0.0 | 0.0 | 0.00 | 0.00 | 0.00 | 76 | 1006.2 |
| 20260831031901 | 82 | 245 | 0.0 | 0.0 | 0.00 | 0.00 | 0.00 | 76 | 1006.2 |
| 20260831031801 | 82 | 245 | 0.0 | 0.0 | 0.00 | 0.00 | 0.00 | 76 | 1006.1 |
| 20260831031701 | 82 | 245 | 0.0 | 1.0 | 0.00 | 0.00 | 0.00 | 76 | 1006.2 |
| 20260831031601 | 82 | 245 | 0.0 | 1.0 | 0.00 | 0.00 | 0.00 | 76 | 1006.1 |
| 20260831031501 | 82 | 245 | 0.0 | 1.0 | 0.00 | 0.00 | 0.00 | 76 | 1006.2 |
| 20260831031400 | 82 | 245 | 0.0 | 1.0 | 0.00 | 0.00 | 0.00 | 76 | 1006.1 |
| 20260831031302 | 82 | 245 | 0.0 | 1.0 | 0.00 | 0.00 | 0.00 | 76 | 1006.1 |
| 20260831031202 | 82 | 245 | 0.0 | 1.0 | 0.00 | 0.00 | 0.00 | 76 | 1006.1 |
| 20260831031101 | 82 | 245 | 0.0 | 1.0 | 0.00 | 0.00 | 0.00 | 76 | 1006.1 |
| 20260831031002 | 82 | 245 | 0.0 | 1.0 | 0.00 | 0.00 | 0.00 | 75 | 1006.0 |
| 20260831030902 | 82 | 245 | 0.0 | 1.0 | 0.00 | 0.00 | 0.00 | 76 | 1006.0 |
| 20260831030802 | 82 | 245 | 0.0 | 1.0 | 0.00 | 0.00 | 0.00 | 76 | 1006.0 |
| 20260831030702 | 82 | 276 | 0.0 | 0.0 | 0.00 | 0.00 | 0.00 | 76 | 1006.0 |
| 20260831030600 | 82 | 276 | 0.0 | 0.0 | 0.00 | 0.00 | 0.00 | 76 | 1006.0 |
| 20260831030502 | 82 | 276 | 0.0 | 0.0 | 0.00 | 0.00 | 0.00 | 75 | 1005.9 |
| 20260831030400 | 82 | 276 | 0.0 | 0.0 | 0.00 | 0.00 | 0.00 | 75 | 1006.0 |
| 20260831030300 | 82 | 276 | 0.0 | 0.0 | 0.00 | 0.00 | 0.00 | 75 | 1006.0 |
| 20260831030202 | 82 | 276 | 0.0 | 0.0 | 0.00 | 0.00 | 0.00 | 75 | 1005.9 |
| 20260831030000 | 82 | 276 | 0.0 | 0.0 | 0.00 | 0.00 | 0.00 | 75 | 1005.8 |
| 20260831025900 | 82 | 276 | 0.0 | 0.0 | 0.00 | 0.00 | 0.00 | 75 | 1005.8 |
| 20260831025759 | 82 | 276 | 0.0 | 0.0 | 0.00 | 0.00 | 0.00 | 75 | 1005.8 |
| 20260831025658 | 82 | 276 | 0.0 | 0.0 | 0.00 | 0.00 | 0.00 | 75 | 1005.9 |
| 20260831025600 | 82 | 276 | 0.0 | 0.0 | 0.00 | 0.00 | 0.00 | 75 | 1005.7 |
| 20260831025457 | 82 | 276 | 0.0 | 0.0 | 0.00 | 0.00 | 0.00 | 75 | 1005.8 |
| 20260831025349 | 82 | 276 | 0.0 | 0.0 | 0.00 | 0.00 | 0.00 | 75 | 1005.8 |
| 20260831025248 | 82 | 276 | 0.0 | 0.0 | 0.00 | 0.00 | 0.00 | 75 | 1005.7 |
| 20260831025145 | 82 | 276 | 0.0 | 0.0 | 0.00 | 0.00 | 0.00 | 75 | 1005.7 |
| 20260831025041 | 82 | 276 | 0.0 | 0.0 | 0.00 | 0.00 | 0.00 | 75 | 1005.8 |
| 20260831024937 | 82 | 276 | 0.0 | 0.0 | 0.00 | 0.00 | 0.00 | 75 | 1005.7 |
| 20260831024839 | 82 | 276 | 0.0 | 0.0 | 0.00 | 0.00 | 0.00 | 75 | 1005.7 |
| 20260831024738 | 82 | 276 | 0.0 | 0.0 | 0.00 | 0.00 | 0.00 | 75 | 1005.7 |
| 20260831024637 | 82 | 276 | 0.0 | 0.0 | 0.00 | 0.00 | 0.00 | 75 | 1005.7 |
| 20260831024530 | 82 | 276 | 0.0 | 0.0 | 0.00 | 0.00 | 0.00 | 75 | 1005.7 |
| 20260831024431 | 83 | 276 | 0.0 | 0.0 | 0.00 | 0.00 | 0.00 | 75 | 1005.8 |
| 20260831024331 | 82 | 276 | 0.0 | 0.0 | 0.00 | 0.00 | 0.00 | 75 | 1005.7 |
| 20260831024233 | 82 | 276 | 0.0 | 0.0 | 0.00 | 0.00 | 0.00 | 75 | 1005.7 |
| 20260831024131 | 83 | 276 | 0.0 | 0.0 | 0.00 | 0.00 | 0.00 | 75 | 1005.6 |
| 20260831024031 | 83 | 276 | 0.0 | 0.0 | 0.00 | 0.00 | 0.00 | 75 | 1005.5 |
| 20260831023932 | 83 | 276 | 0.0 | 0.0 | 0.00 | 0.00 | 0.00 | 75 | 1005.6 |
| 20260831023831 | 83 | 276 | 0.0 | 0.0 | 0.00 | 0.00 | 0.00 | 75 | 1005.5 |
| 20260831023731 | 83 | 276 | 0.0 | 0.0 | 0.00 | 0.00 | 0.00 | 75 | 1005.5 |
| 20260831023631 | 83 | 276 | 0.0 | 0.0 | 0.00 | 0.00 | 0.00 | 75 | 1005.5 |
| 20260831023531 | 83 | 276 | 0.0 | 0.0 | 0.00 | 0.00 | 0.00 | 75 | 1005.5 |
| 20260831023434 | 83 | 276 | 0.0 | 0.0 | 0.00 | 0.00 | 0.00 | 74 | 1005.5 |
| 20260831023331 | 83 | 276 | 0.0 | 0.0 | 0.00 | 0.00 | 0.00 | 74 | 1005.5 |
| 20260831023231 | 83 | 276 | 0.0 | 0.0 | 0.00 | 0.00 | 0.00 | 74 | 1005.5 |
| 20260831023130 | 83 | 276 | 0.0 | 0.0 | 0.00 | 0.00 | 0.00 | 74 | 1005.4 |
| 20260831023027 | 83 | 276 | 0.0 | 0.0 | 0.00 | 0.00 | 0.00 | 74 | 1005.4 |
| 20260831022919 | 83 | 276 | 0.0 | 0.0 | 0.00 | 0.00 | 0.00 | 74 | 1005.3 |
| 20260831022811 | 83 | 276 | 0.0 | 0.0 | 0.00 | 0.00 | 0.00 | 73 | 1005.3 |
| 20260831022712 | 83 | 276 | 0.0 | 0.0 | 0.00 | 0.00 | 0.00 | 73 | 1005.3 |
| 20260831022605 | 83 | 276 | 0.0 | 0.0 | 0.00 | 0.00 | 0.00 | 73 | 1005.3 |
| 20260831022503 | 83 | 276 | 0.0 | 0.0 | 0.00 | 0.00 | 0.00 | 73 | 1005.2 |
| 20260831022403 | 83 | 276 | 0.0 | 0.0 | 0.00 | 0.00 | 0.00 | 73 | 1005.2 |
| 20260831022301 | 83 | 276 | 0.0 | 0.0 | 0.00 | 0.00 | 0.00 | 74 | 1005.2 |
| 20260831022202 | 83 | 276 | 0.0 | 0.0 | 0.00 | 0.00 | 0.00 | 73 | 1005.2 |
| 20260831022102 | 83 | 276 | 0.0 | 0.0 | 0.00 | 0.00 | 0.00 | 73 | 1005.2 |
| 20260831022003 | 83 | 276 | 0.0 | 0.0 | 0.00 | 0.00 | 0.00 | 73 | 1005.2 |
| 20260831021904 | 83 | 276 | 0.0 | 0.0 | 0.00 | 0.00 | 0.00 | 73 | 1005.2 |
| 20260831021804 | 83 | 276 | 0.0 | 0.0 | 0.00 | 0.00 | 0.00 | 73 | 1005.2 |
| 20260831021702 | 83 | 276 | 0.0 | 0.0 | 0.00 | 0.00 | 0.00 | 73 | 1005.2 |
| 20260831021601 | 83 | 276 | 0.0 | 0.0 | 0.00 | 0.00 | 0.00 | 73 | 1005.2 |
| 20260831021503 | 83 | 276 | 0.0 | 0.0 | 0.00 | 0.00 | 0.00 | 73 | 1005.2 |
| 20260831021402 | 83 | 276 | 0.0 | 0.0 | 0.00 | 0.00 | 0.00 | 73 | 1005.2 |
| 20260831021302 | 83 | 276 | 0.0 | 0.0 | 0.00 | 0.00 | 0.00 | 73 | 1005.2 |
| 20260831021204 | 83 | 276 | 0.0 | 0.0 | 0.00 | 0.00 | 0.00 | 73 | 1005.2 |
| 20260831021102 | 84 | 276 | 0.0 | 0.0 | 0.00 | 0.00 | 0.00 | 73 | 1005.1 |
| 20260831021005 | 84 | 276 | 0.0 | 0.0 | 0.00 | 0.00 | 0.00 | 73 | 1005.1 |
| 20260831020902 | 84 | 276 | 0.0 | 0.0 | 0.00 | 0.00 | 0.00 | 72 | 1005.1 |
| 20260831020804 | 83 | 276 | 0.0 | 0.0 | 0.00 | 0.00 | 0.00 | 72 | 1005.1 |
| 20260831020704 | 83 | 276 | 0.0 | 0.0 | 0.00 | 0.00 | 0.00 | 72 | 1005.0 |
| 20260831020603 | 83 | 276 | 0.0 | 0.0 | 0.00 | 0.00 | 0.00 | 73 | 1005.1 |
| 20260831020503 | 84 | 276 | 0.0 | 0.0 | 0.00 | 0.00 | 0.00 | 72 | 1005.0 |
| 20260831020404 | 84 | 276 | 0.0 | 0.0 | 0.00 | 0.00 | 0.00 | 72 | 1004.9 |
| 20260831020302 | 83 | 276 | 0.0 | 0.0 | 0.00 | 0.00 | 0.00 | 72 | 1004.9 |
| 20260831020202 | 84 | 276 | 0.0 | 0.0 | 0.00 | 0.00 | 0.00 | 72 | 1005.0 |
| 20260831020104 | 84 | 276 | 0.0 | 0.0 | 0.00 | 0.00 | 0.00 | 72 | 1004.9 |
| 20260831020003 | 84 | 276 | 0.0 | 0.0 | 0.00 | 0.00 | 0.00 | 72 | 1005.0 |
| 20260831015902 | 84 | 276 | 0.0 | 0.0 | 0.00 | 0.00 | 0.00 | 72 | 1005.0 |
| 20260831015803 | 84 | 276 | 0.0 | 0.0 | 0.00 | 0.00 | 0.00 | 72 | 1005.0 |
| 20260831015703 | 84 | 276 | 0.0 | 0.0 | 0.00 | 0.00 | 0.00 | 72 | 1005.0 |
| 20260831015602 | 84 | 276 | 0.0 | 0.0 | 0.00 | 0.00 | 0.00 | 72 | 1004.9 |
| 20260831015503 | 84 | 276 | 0.0 | 0.0 | 0.00 | 0.00 | 0.00 | 72 | 1004.9 |
| 20260831015402 | 84 | 276 | 0.0 | 0.0 | 0.00 | 0.00 | 0.00 | 72 | 1004.9 |
| 20260831015305 | 84 | 276 | 0.0 | 0.0 | 0.00 | 0.00 | 0.00 | 72 | 1004.9 |
| 20260831015203 | 84 | 276 | 0.0 | 0.0 | 0.00 | 0.00 | 0.00 | 72 | 1005.0 |
| 20260831015103 | 84 | 276 | 0.0 | 0.0 | 0.00 | 0.00 | 0.00 | 72 | 1004.9 |
| 20260831015003 | 84 | 276 | 0.0 | 0.0 | 0.00 | 0.00 | 0.00 | 72 | 1004.9 |
| 20260831014902 | 84 | 276 | 0.0 | 0.0 | 0.00 | 0.00 | 0.00 | 72 | 1004.9 |
| 20260831014803 | 84 | 276 | 0.0 | 0.0 | 0.00 | 0.00 | 0.00 | 72 | 1004.8 |
| 20260831014702 | 84 | 276 | 0.0 | 0.0 | 0.00 | 0.00 | 0.00 | 72 | 1004.9 |
| 20260831014603 | 84 | 276 | 0.0 | 0.0 | 0.00 | 0.00 | 0.00 | 72 | 1004.9 |
| 20260831014503 | 84 | 276 | 0.0 | 0.0 | 0.00 | 0.00 | 0.00 | 71 | 1004.8 |
| 20260831014404 | 84 | 276 | 0.0 | 0.0 | 0.00 | 0.00 | 0.00 | 71 | 1004.8 |
| 20260831014303 | 84 | 276 | 0.0 | 0.0 | 0.00 | 0.00 | 0.00 | 72 | 1004.8 |
| 20260831014203 | 84 | 276 | 0.0 | 0.0 | 0.00 | 0.00 | 0.00 | 72 | 1004.8 |
| 20260831014102 | 84 | 276 | 0.0 | 0.0 | 0.00 | 0.00 | 0.00 | 72 | 1004.9 |
| 20260831014004 | 84 | 276 | 0.0 | 0.0 | 0.00 | 0.00 | 0.00 | 71 | 1004.9 |
| 20260831013902 | 84 | 276 | 0.0 | 0.0 | 0.00 | 0.00 | 0.00 | 71 | 1004.9 |
| 20260831013802 | 85 | 276 | 0.0 | 0.0 | 0.00 | 0.00 | 0.00 | 71 | 1004.9 |
| 20260831013703 | 85 | 276 | 0.0 | 0.0 | 0.00 | 0.00 | 0.00 | 71 | 1004.9 |
| 20260831013604 | 85 | 276 | 0.0 | 0.0 | 0.00 | 0.00 | 0.00 | 71 | 1004.9 |
| 20260831013502 | 85 | 276 | 0.0 | 0.0 | 0.00 | 0.00 | 0.00 | 71 | 1004.8 |
| 20260831013402 | 85 | 276 | 0.0 | 0.0 | 0.00 | 0.00 | 0.00 | 71 | 1004.9 |
| 20260831013302 | 85 | 276 | 0.0 | 0.0 | 0.00 | 0.00 | 0.00 | 71 | 1004.9 |
| 20260831013202 | 85 | 276 | 0.0 | 0.0 | 0.00 | 0.00 | 0.00 | 71 | 1004.9 |
| 20260831013103 | 85 | 276 | 0.0 | 0.0 | 0.00 | 0.00 | 0.00 | 71 | 1004.8 |
| 20260831013002 | 85 | 276 | 0.0 | 0.0 | 0.00 | 0.00 | 0.00 | 71 | 1004.8 |
| 20260831012903 | 85 | 276 | 0.0 | 0.0 | 0.00 | 0.00 | 0.00 | 71 | 1004.9 |
| 20260831012802 | 85 | 276 | 0.0 | 0.0 | 0.00 | 0.00 | 0.00 | 71 | 1004.9 |
| 20260831012704 | 85 | 276 | 0.0 | 0.0 | 0.00 | 0.00 | 0.00 | 71 | 1004.9 |
| 20260831012604 | 85 | 276 | 0.0 | 0.0 | 0.00 | 0.00 | 0.00 | 71 | 1004.8 |
| 20260831012503 | 85 | 276 | 0.0 | 0.0 | 0.00 | 0.00 | 0.00 | 70 | 1004.8 |
| 20260831012402 | 85 | 276 | 0.0 | 0.0 | 0.00 | 0.00 | 0.00 | 70 | 1004.8 |
| 20260831012306 | 85 | 276 | 0.0 | 0.0 | 0.00 | 0.00 | 0.00 | 70 | 1004.8 |
| 20260831012202 | 85 | 276 | 0.0 | 0.0 | 0.00 | 0.00 | 0.00 | 70 | 1004.8 |
| 20260831012103 | 86 | 276 | 0.0 | 0.0 | 0.00 | 0.00 | 0.00 | 70 | 1004.7 |
| 20260831012004 | 86 | 276 | 0.0 | 0.0 | 0.00 | 0.00 | 0.00 | 69 | 1004.8 |
| 20260831011902 | 86 | 276 | 0.0 | 0.0 | 0.00 | 0.00 | 0.00 | 69 | 1004.8 |
| 20260831011802 | 86 | 276 | 0.0 | 0.0 | 0.00 | 0.00 | 0.00 | 69 | 1004.8 |
| 20260831011703 | 86 | 276 | 0.0 | 0.0 | 0.00 | 0.00 | 0.00 | 69 | 1004.7 |
| 20260831011602 | 86 | 276 | 0.0 | 0.0 | 0.00 | 0.00 | 0.00 | 69 | 1004.7 |
| 20260831011502 | 86 | 276 | 0.0 | 0.0 | 0.00 | 0.00 | 0.00 | 69 | 1004.8 |
| 20260831011402 | 86 | 276 | 0.0 | 0.0 | 0.00 | 0.00 | 0.00 | 68 | 1004.8 |
| 20260831011302 | 86 | 276 | 0.0 | 0.0 | 0.00 | 0.00 | 0.00 | 69 | 1004.7 |
| 20260831011202 | 86 | 276 | 0.0 | 0.0 | 0.00 | 0.00 | 0.00 | 69 | 1004.7 |
| 20260831011102 | 86 | 276 | 0.0 | 0.0 | 0.00 | 0.00 | 0.00 | 68 | 1004.7 |
| 20260831011002 | 86 | 276 | 0.0 | 0.0 | 0.00 | 0.00 | 0.00 | 68 | 1004.7 |
| 20260831010902 | 86 | 276 | 0.0 | 0.0 | 0.00 | 0.00 | 0.00 | 68 | 1004.6 |
| 20260831010802 | 86 | 276 | 0.0 | 0.0 | 0.00 | 0.00 | 0.00 | 68 | 1004.6 |
| 20260831010702 | 86 | 276 | 0.0 | 0.0 | 0.00 | 0.00 | 0.00 | 68 | 1004.6 |
| 20260831010604 | 86 | 276 | 0.0 | 0.0 | 0.00 | 0.00 | 0.00 | 68 | 1004.6 |
| 20260831010502 | 86 | 276 | 0.0 | 0.0 | 0.00 | 0.00 | 0.00 | 68 | 1004.6 |
| 20260831010402 | 86 | 276 | 0.0 | 0.0 | 0.00 | 0.00 | 0.00 | 68 | 1004.5 |
| 20260831010303 | 86 | 276 | 0.0 | 0.0 | 0.00 | 0.00 | 0.00 | 68 | 1004.6 |
| 20260831010204 | 86 | 276 | 0.0 | 0.0 | 0.00 | 0.00 | 0.00 | 68 | 1004.6 |
| 20260831010100 | 86 | 276 | 0.0 | 0.0 | 0.00 | 0.00 | 0.00 | 68 | 1004.5 |
| 20260831005958 | 86 | 276 | 0.0 | 0.0 | 0.00 | 0.00 | 0.00 | 68 | 1004.6 |
| 20260831005857 | 86 | 276 | 0.0 | 0.0 | 0.00 | 0.00 | 0.00 | 68 | 1004.5 |
| 20260831005758 | 87 | 276 | 0.0 | 0.0 | 0.00 | 0.00 | 0.00 | 68 | 1004.6 |
| 20260831005658 | 87 | 276 | 0.0 | 0.0 | 0.00 | 0.00 | 0.00 | 68 | 1004.5 |
| 20260831005558 | 87 | 276 | 0.0 | 0.0 | 0.00 | 0.00 | 0.00 | 69 | 1004.6 |
| 20260831005458 | 87 | 276 | 0.0 | 0.0 | 0.00 | 0.00 | 0.00 | 69 | 1004.5 |
| 20260831005358 | 87 | 276 | 0.0 | 0.0 | 0.00 | 0.00 | 0.00 | 69 | 1004.5 |
| 20260831005258 | 87 | 276 | 0.0 | 0.0 | 0.00 | 0.00 | 0.00 | 69 | 1004.5 |
| 20260831005159 | 87 | 276 | 0.0 | 0.0 | 0.00 | 0.00 | 0.00 | 69 | 1004.4 |
| 20260831005057 | 87 | 276 | 0.0 | 0.0 | 0.00 | 0.00 | 0.00 | 69 | 1004.4 |
| 20260831004958 | 87 | 276 | 0.0 | 0.0 | 0.00 | 0.00 | 0.00 | 68 | 1004.5 |
| 20260831004858 | 87 | 276 | 0.0 | 0.0 | 0.00 | 0.00 | 0.00 | 68 | 1004.5 |
| 20260831004800 | 87 | 276 | 0.0 | 0.0 | 0.00 | 0.00 | 0.00 | 68 | 1004.4 |
| 20260831004700 | 87 | 276 | 0.0 | 0.0 | 0.00 | 0.00 | 0.00 | 68 | 1004.4 |
| 20260831004558 | 87 | 276 | 0.0 | 0.0 | 0.00 | 0.00 | 0.00 | 68 | 1004.4 |
| 20260831004500 | 87 | 276 | 0.0 | 0.0 | 0.00 | 0.00 | 0.00 | 67 | 1004.4 |
| 20260831004359 | 88 | 276 | 0.0 | 0.0 | 0.00 | 0.00 | 0.00 | 67 | 1004.4 |
| 20260831004257 | 88 | 276 | 0.0 | 0.0 | 0.00 | 0.00 | 0.00 | 67 | 1004.4 |
| 20260831004157 | 88 | 276 | 0.0 | 0.0 | 0.00 | 0.00 | 0.00 | 67 | 1004.4 |
| 20260831004057 | 88 | 276 | 0.0 | 0.0 | 0.00 | 0.00 | 0.00 | 67 | 1004.3 |
| 20260831003958 | 88 | 276 | 0.0 | 0.0 | 0.00 | 0.00 | 0.00 | 66 | 1004.4 |
| 20260831003858 | 88 | 276 | 0.0 | 0.0 | 0.00 | 0.00 | 0.00 | 66 | 1004.4 |
| 20260831003757 | 88 | 276 | 0.0 | 0.0 | 0.00 | 0.00 | 0.00 | 66 | 1004.4 |
| 20260831003700 | 88 | 276 | 0.0 | 0.0 | 0.00 | 0.00 | 0.00 | 66 | 1004.4 |
| 20260831003557 | 88 | 276 | 0.0 | 0.0 | 0.00 | 0.00 | 0.00 | 66 | 1004.4 |
| 20260831003458 | 88 | 276 | 0.0 | 0.0 | 0.00 | 0.00 | 0.00 | 66 | 1004.3 |
| 20260831003357 | 88 | 276 | 0.0 | 0.0 | 0.00 | 0.00 | 0.00 | 66 | 1004.4 |
| 20260831003257 | 88 | 276 | 0.0 | 0.0 | 0.00 | 0.00 | 0.00 | 66 | 1004.4 |
| 20260831003156 | 88 | 276 | 0.0 | 0.0 | 0.00 | 0.00 | 0.00 | 66 | 1004.4 |
| 20260831003055 | 88 | 276 | 0.0 | 0.0 | 0.00 | 0.00 | 0.00 | 67 | 1004.4 |
| 20260831002956 | 88 | 276 | 0.0 | 0.0 | 0.00 | 0.00 | 0.00 | 67 | 1004.4 |
| 20260831002854 | 89 | 276 | 0.0 | 0.0 | 0.00 | 0.00 | 0.00 | 67 | 1004.3 |
| 20260831002747 | 89 | 276 | 0.0 | 0.0 | 0.00 | 0.00 | 0.00 | 67 | 1004.4 |
| 20260831002644 | 89 | 276 | 0.0 | 0.0 | 0.00 | 0.00 | 0.00 | 67 | 1004.4 |
| 20260831002542 | 89 | 276 | 0.0 | 0.0 | 0.00 | 0.00 | 0.00 | 65 | 1004.4 |
| 20260831002438 | 89 | 276 | 0.0 | 0.0 | 0.00 | 0.00 | 0.00 | 65 | 1004.3 |
| 20260831002334 | 89 | 276 | 0.0 | 0.0 | 0.00 | 0.00 | 0.00 | 65 | 1004.3 |
| 20260831002231 | 89 | 276 | 0.0 | 0.0 | 0.00 | 0.00 | 0.00 | 64 | 1004.4 |
| 20260831002132 | 89 | 276 | 0.0 | 0.0 | 0.00 | 0.00 | 0.00 | 64 | 1004.3 |
| 20260831002031 | 89 | 310 | 0.0 | 0.0 | 0.00 | 0.00 | 0.00 | 64 | 1004.2 |
| 20260831001931 | 89 | 310 | 0.0 | 0.0 | 0.00 | 0.00 | 0.00 | 64 | 1004.3 |
| 20260831001832 | 89 | 310 | 0.0 | 0.0 | 0.00 | 0.00 | 0.00 | 64 | 1004.3 |
| 20260831001731 | 90 | 310 | 0.0 | 0.0 | 0.00 | 0.00 | 0.00 | 64 | 1004.3 |
| 20260831001631 | 90 | 310 | 0.0 | 0.0 | 0.00 | 0.00 | 0.00 | 64 | 1004.4 |
| 20260831001532 | 90 | 310 | 0.0 | 0.0 | 0.00 | 0.00 | 0.00 | 64 | 1004.3 |
| 20260831001431 | 90 | 310 | 0.0 | 0.0 | 0.00 | 0.00 | 0.00 | 64 | 1004.3 |
| 20260831001332 | 90 | 310 | 0.0 | 0.0 | 0.00 | 0.00 | 0.00 | 63 | 1004.3 |
| 20260831001231 | 90 | 310 | 0.0 | 0.0 | 0.00 | 0.00 | 0.00 | 63 | 1004.3 |
| 20260831001131 | 90 | 310 | 0.0 | 0.0 | 0.00 | 0.00 | 0.00 | 61 | 1004.3 |
| 20260831001031 | 90 | 310 | 0.0 | 0.0 | 0.00 | 0.00 | 0.00 | 61 | 1004.4 |
| 20260831000931 | 90 | 310 | 0.0 | 0.0 | 0.00 | 0.00 | 0.00 | 61 | 1004.3 |
| 20260831000833 | 91 | 310 | 0.0 | 0.0 | 0.00 | 0.00 | 0.00 | 61 | 1004.4 |
| 20260831000732 | 91 | 310 | 0.0 | 0.0 | 0.00 | 0.00 | 0.00 | 61 | 1004.3 |
| 20260831000632 | 91 | 310 | 0.0 | 0.0 | 0.00 | 0.00 | 0.00 | 61 | 1004.4 |
| 20260831000533 | 91 | 310 | 0.0 | 0.0 | 0.00 | 0.00 | 0.00 | 61 | 1004.3 |
| 20260831000432 | 91 | 310 | 0.0 | 0.0 | 0.00 | 0.00 | 0.00 | 61 | 1004.4 |
| 20260831000333 | 91 | 310 | 0.0 | 0.0 | 0.00 | 0.00 | 0.00 | 59 | 1004.4 |
| 20260831000233 | 91 | 310 | 0.0 | 0.0 | 0.00 | 0.00 | 0.00 | 59 | 1004.3 |
| 20260831000132 | 91 | 310 | 0.0 | 0.0 | 0.00 | 0.00 | 0.00 | 59 | 1004.3 |
| 20260831000033 | 91 | 310 | 0.0 | 0.0 | 0.00 | 0.00 | 0.00 | 59 | 1004.3 |
| 20260830235931 | 91 | 310 | 0.0 | 0.0 | 0.00 | 0.00 | 0.00 | 60 | 1004.4 |
| 20260830235832 | 91 | 310 | 0.0 | 0.0 | 0.00 | 0.00 | 0.00 | 60 | 1004.4 |
| 20260830235733 | 91 | 310 | 0.0 | 0.0 | 0.00 | 0.00 | 0.00 | 60 | 1004.4 |
| 20260830235632 | 91 | 310 | 0.0 | 0.0 | 0.00 | 0.00 | 0.00 | 60 | 1004.4 |
| 20260830235530 | 92 | 310 | 0.0 | 0.0 | 0.00 | 0.00 | 0.00 | 60 | 1004.4 |
| 20260830235429 | 92 | 310 | 0.0 | 0.0 | 0.00 | 0.00 | 0.00 | 59 | 1004.4 |
| 20260830235330 | 92 | 310 | 0.0 | 0.0 | 0.00 | 0.00 | 0.00 | 59 | 1004.4 |
| 20260830235226 | 92 | 310 | 0.0 | 0.0 | 0.00 | 0.00 | 0.00 | 59 | 1004.4 |
| 20260830235119 | 92 | 310 | 0.0 | 0.0 | 0.00 | 0.00 | 0.00 | 59 | 1004.3 |
| 20260830235017 | 92 | 310 | 0.0 | 0.0 | 0.00 | 0.00 | 0.00 | 59 | 1004.3 |
| 20260830234915 | 92 | 310 | 0.0 | 0.0 | 0.00 | 0.00 | 0.00 | 58 | 1004.4 |
| 20260830234810 | 92 | 310 | 0.0 | 0.0 | 0.00 | 0.00 | 0.00 | 59 | 1004.3 |
| 20260830234711 | 92 | 310 | 0.0 | 0.0 | 0.00 | 0.00 | 0.00 | 58 | 1004.4 |
| 20260830234605 | 93 | 310 | 0.0 | 0.0 | 0.00 | 0.00 | 0.00 | 58 | 1004.3 |
| 20260830234504 | 93 | 310 | 0.0 | 0.0 | 0.00 | 0.00 | 0.00 | 58 | 1004.4 |
| 20260830234402 | 93 | 310 | 0.0 | 0.0 | 0.00 | 0.00 | 0.00 | 58 | 1004.4 |
| 20260830234304 | 93 | 310 | 0.0 | 0.0 | 0.00 | 0.00 | 0.00 | 57 | 1004.3 |
| 20260830234202 | 93 | 310 | 0.0 | 0.0 | 0.00 | 0.00 | 0.00 | 57 | 1004.3 |
| 20260830234102 | 93 | 310 | 0.0 | 1.0 | 0.00 | 0.00 | 0.00 | 56 | 1004.3 |
| 20260830234002 | 93 | 310 | 0.0 | 1.0 | 0.00 | 0.00 | 0.00 | 56 | 1004.4 |
| 20260830233902 | 93 | 310 | 0.0 | 1.0 | 0.00 | 0.00 | 0.00 | 55 | 1004.4 |
| 20260830233804 | 93 | 310 | 0.0 | 1.0 | 0.00 | 0.00 | 0.00 | 55 | 1004.3 |
| 20260830233704 | 93 | 310 | 0.0 | 1.0 | 0.00 | 0.00 | 0.00 | 55 | 1004.4 |
| 20260830233602 | 94 | 310 | 0.0 | 1.0 | 0.00 | 0.00 | 0.00 | 54 | 1004.3 |
| 20260830233502 | 94 | 310 | 0.0 | 1.0 | 0.00 | 0.00 | 0.00 | 52 | 1004.4 |
| 20260830233402 | 94 | 310 | 0.0 | 1.0 | 0.00 | 0.00 | 0.00 | 52 | 1004.3 |
| 20260830233305 | 94 | 310 | 0.0 | 1.0 | 0.00 | 0.00 | 0.00 | 54 | 1004.3 |
| 20260830233202 | 94 | 310 | 0.0 | 1.0 | 0.00 | 0.00 | 0.00 | 54 | 1004.3 |
| 20260830233102 | 94 | 310 | 0.0 | 1.0 | 0.00 | 0.00 | 0.00 | 52 | 1004.3 |
| 20260830233004 | 94 | 310 | 0.0 | 1.0 | 0.00 | 0.00 | 0.00 | 53 | 1004.4 |
| 20260830232903 | 94 | 312 | 0.0 | 1.0 | 0.00 | 0.00 | 0.00 | 55 | 1004.5 |
| 20260830232802 | 94 | 312 | 0.0 | 1.0 | 0.00 | 0.00 | 0.00 | 55 | 1004.4 |
| 20260830232702 | 94 | 312 | 0.0 | 1.0 | 0.00 | 0.00 | 0.00 | 55 | 1004.4 |
| 20260830232603 | 94 | 312 | 0.0 | 3.0 | 0.00 | 0.00 | 0.00 | 53 | 1004.4 |
| 20260830232503 | 94 | 312 | 0.0 | 3.0 | 0.00 | 0.00 | 0.00 | 53 | 1004.4 |
| 20260830232402 | 94 | 312 | 0.0 | 3.0 | 0.00 | 0.00 | 0.00 | 53 | 1004.4 |
| 20260830232305 | 94 | 312 | 0.0 | 3.0 | 0.00 | 0.00 | 0.00 | 53 | 1004.4 |
| 20260830232202 | 94 | 312 | 0.0 | 3.0 | 0.00 | 0.00 | 0.00 | 53 | 1004.4 |
| 20260830232102 | 95 | 312 | 0.0 | 3.0 | 0.00 | 0.00 | 0.00 | 51 | 1004.3 |
| 20260830232002 | 95 | 312 | 0.0 | 3.0 | 0.00 | 0.00 | 0.00 | 51 | 1004.3 |
| 20260830231902 | 95 | 312 | 0.0 | 3.0 | 0.00 | 0.00 | 0.00 | 51 | 1004.3 |
| 20260830231802 | 95 | 312 | 0.0 | 3.0 | 0.00 | 0.00 | 0.00 | 51 | 1004.4 |
| 20260830231702 | 95 | 312 | 0.0 | 3.0 | 0.00 | 0.00 | 0.00 | 52 | 1004.4 |
| 20260830231604 | 95 | 203 | 0.0 | 1.0 | 0.00 | 0.00 | 0.00 | 51 | 1004.4 |
| 20260830231502 | 95 | 203 | 0.0 | 1.0 | 0.00 | 0.00 | 0.00 | 51 | 1004.3 |
| 20260830231402 | 95 | 203 | 0.0 | 1.0 | 0.00 | 0.00 | 0.00 | 53 | 1004.4 |
| 20260830231302 | 95 | 203 | 0.0 | 1.0 | 0.00 | 0.00 | 0.00 | 51 | 1004.4 |
| 20260830231203 | 95 | 203 | 0.0 | 1.0 | 0.00 | 0.00 | 0.00 | 51 | 1004.4 |
| 20260830231102 | 95 | 203 | 0.0 | 1.0 | 0.00 | 0.00 | 0.00 | 51 | 1004.4 |
| 20260830231002 | 95 | 203 | 0.0 | 1.0 | 0.00 | 0.00 | 0.00 | 52 | 1004.4 |
| 20260830230903 | 95 | 203 | 0.0 | 1.0 | 0.00 | 0.00 | 0.00 | 52 | 1004.4 |
| 20260830230802 | 95 | 202 | 0.0 | 1.0 | 0.00 | 0.00 | 0.00 | 52 | 1004.4 |
| 20260830230702 | 95 | 202 | 0.0 | 1.0 | 0.00 | 0.00 | 0.00 | 52 | 1004.4 |
| 20260830230604 | 95 | 204 | 0.0 | 1.0 | 0.00 | 0.00 | 0.00 | 50 | 1004.4 |
| 20260830230504 | 95 | 204 | 1.0 | 1.0 | 0.00 | 0.00 | 0.00 | 50 | 1004.4 |
| 20260830230402 | 95 | 206 | 0.0 | 3.0 | 0.00 | 0.00 | 0.00 | 50 | 1004.4 |
| 20260830230304 | 95 | 206 | 0.0 | 3.0 | 0.00 | 0.00 | 0.00 | 50 | 1004.4 |
| 20260830230202 | 95 | 206 | 0.0 | 3.0 | 0.00 | 0.00 | 0.00 | 50 | 1004.3 |
| 20260830230104 | 95 | 206 | 0.0 | 3.0 | 0.00 | 0.00 | 0.00 | 50 | 1004.4 |
| 20260830230004 | 95 | 206 | 0.0 | 3.0 | 0.00 | 0.00 | 0.00 | 50 | 1004.4 |
| 20260830225903 | 95 | 206 | 0.0 | 3.0 | 0.00 | 0.00 | 0.00 | 51 | 1004.4 |
| 20260830225802 | 95 | 206 | 0.0 | 3.0 | 0.00 | 0.00 | 0.00 | 51 | 1004.4 |
| 20260830225702 | 95 | 206 | 0.0 | 3.0 | 0.00 | 0.00 | 0.00 | 51 | 1004.3 |
| 20260830225604 | 95 | 206 | 1.0 | 3.0 | 0.00 | 0.00 | 0.00 | 53 | 1004.4 |
| 20260830225503 | 95 | 206 | 1.0 | 3.0 | 0.00 | 0.00 | 0.00 | 53 | 1004.4 |
| 20260830225402 | 95 | 217 | 1.0 | 2.0 | 0.00 | 0.00 | 0.00 | 51 | 1004.4 |
| 20260830225306 | 95 | 121 | 0.0 | 1.0 | 0.00 | 0.00 | 0.00 | 51 | 1004.4 |
| 20260830225157 | 95 | 118 | 0.0 | 1.0 | 0.00 | 0.00 | 0.00 | 51 | 1004.4 |
| 20260830225055 | 95 | 118 | 0.0 | 2.0 | 0.00 | 0.00 | 0.00 | 51 | 1004.4 |
| 20260830224957 | 96 | 118 | 0.0 | 2.0 | 0.00 | 0.00 | 0.00 | 49 | 1004.5 |
| 20260830224848 | 96 | 118 | 0.0 | 2.0 | 0.00 | 0.00 | 0.00 | 49 | 1004.4 |
| 20260830224749 | 96 | 118 | 0.0 | 2.0 | 0.00 | 0.00 | 0.00 | 49 | 1004.4 |
| 20260830224647 | 96 | 118 | 0.0 | 2.0 | 0.00 | 0.00 | 0.00 | 49 | 1004.4 |
| 20260830224542 | 96 | 118 | 0.0 | 2.0 | 0.00 | 0.00 | 0.00 | 49 | 1004.4 |
| 20260830224442 | 96 | 118 | 0.0 | 2.0 | 0.00 | 0.00 | 0.00 | 52 | 1004.5 |
| 20260830224331 | 96 | 120 | 0.0 | 2.0 | 0.00 | 0.00 | 0.00 | 51 | 1004.5 |
| 20260830224232 | 96 | 120 | 0.0 | 2.0 | 0.00 | 0.00 | 0.00 | 50 | 1004.4 |
| 20260830224131 | 96 | 245 | 0.0 | 2.0 | 0.00 | 0.00 | 0.00 | 50 | 1004.4 |
| 20260830224031 | 96 | 244 | 0.0 | 2.0 | 0.00 | 0.00 | 0.00 | 50 | 1004.4 |
| 20260830223932 | 96 | 245 | 0.0 | 2.0 | 0.00 | 0.00 | 0.00 | 50 | 1004.4 |
| 20260830223832 | 96 | 275 | 0.0 | 2.0 | 0.00 | 0.00 | 0.00 | 50 | 1004.5 |
| 20260830223732 | 96 | 275 | 1.0 | 2.0 | 0.00 | 0.00 | 0.00 | 50 | 1004.5 |
| 20260830223631 | 96 | 275 | 1.0 | 2.0 | 0.00 | 0.00 | 0.00 | 50 | 1004.5 |
| 20260830223531 | 96 | 58 | 0.0 | 2.0 | 0.00 | 0.00 | 0.00 | 51 | 1004.5 |
| 20260830223432 | 96 | 58 | 0.0 | 2.0 | 0.00 | 0.00 | 0.00 | 51 | 1004.5 |
| 20260830223331 | 96 | 266 | 0.0 | 2.0 | 0.00 | 0.00 | 0.00 | 51 | 1004.5 |
| 20260830223232 | 96 | 266 | 0.0 | 2.0 | 0.00 | 0.00 | 0.00 | 51 | 1004.5 |
| 20260830223132 | 96 | 266 | 0.0 | 2.0 | 0.00 | 0.00 | 0.00 | 50 | 1004.5 |
| 20260830223033 | 96 | 266 | 0.0 | 2.0 | 0.00 | 0.00 | 0.00 | 50 | 1004.6 |
| 20260830222929 | 96 | 266 | 0.0 | 2.0 | 0.00 | 0.00 | 0.00 | 49 | 1004.6 |
| 20260830222825 | 96 | 264 | 1.0 | 2.0 | 0.00 | 0.00 | 0.00 | 49 | 1004.5 |
| 20260830222724 | 96 | 264 | 1.0 | 2.0 | 0.00 | 0.00 | 0.00 | 49 | 1004.6 |
| 20260830222622 | 96 | 268 | 0.0 | 2.0 | 0.00 | 0.00 | 0.00 | 49 | 1004.5 |
| 20260830222520 | 96 | 268 | 0.0 | 2.0 | 0.00 | 0.00 | 0.00 | 49 | 1004.5 |
| 20260830222419 | 96 | 268 | 0.0 | 2.0 | 0.00 | 0.00 | 0.00 | 50 | 1004.6 |
| 20260830222313 | 96 | 275 | 0.0 | 2.0 | 0.00 | 0.00 | 0.00 | 50 | 1004.6 |
| 20260830222213 | 96 | 275 | 0.0 | 2.0 | 0.00 | 0.00 | 0.00 | 48 | 1004.6 |
| 20260830222114 | 96 | 275 | 0.0 | 2.0 | 0.00 | 0.00 | 0.00 | 49 | 1004.7 |
| 20260830222007 | 96 | 244 | 0.0 | 2.0 | 0.00 | 0.00 | 0.00 | 49 | 1004.6 |
| 20260830221906 | 96 | 245 | 0.0 | 2.0 | 0.00 | 0.00 | 0.00 | 48 | 1004.6 |
| 20260830221804 | 96 | 245 | 0.0 | 2.0 | 0.00 | 0.00 | 0.00 | 48 | 1004.6 |
| 20260830221706 | 97 | 237 | 0.0 | 2.0 | 0.00 | 0.00 | 0.00 | 50 | 1004.6 |
| 20260830221603 | 97 | 333 | 0.0 | 2.0 | 0.00 | 0.00 | 0.00 | 50 | 1004.6 |
| 20260830221502 | 97 | 337 | 0.0 | 2.0 | 0.00 | 0.00 | 0.00 | 49 | 1004.6 |
| 20260830221403 | 97 | 337 | 0.0 | 2.0 | 0.00 | 0.00 | 0.00 | 49 | 1004.6 |
| 20260830221303 | 97 | 337 | 0.0 | 2.0 | 0.00 | 0.00 | 0.00 | 49 | 1004.6 |
| 20260830221204 | 97 | 337 | 0.0 | 2.0 | 0.00 | 0.00 | 0.00 | 49 | 1004.6 |
| 20260830221103 | 97 | 337 | 0.0 | 2.0 | 0.00 | 0.00 | 0.00 | 49 | 1004.6 |
| 20260830221002 | 97 | 327 | 0.0 | 2.0 | 0.00 | 0.00 | 0.00 | 49 | 1004.6 |
| 20260830220903 | 97 | 327 | 0.0 | 2.0 | 0.00 | 0.00 | 0.00 | 49 | 1004.5 |
| 20260830220803 | 97 | 1 | 0.0 | 2.0 | 0.00 | 0.00 | 0.00 | 49 | 1004.6 |
| 20260830220702 | 97 | 1 | 1.0 | 2.0 | 0.00 | 0.00 | 0.00 | 49 | 1004.6 |
| 20260830220602 | 97 | 1 | 1.0 | 2.0 | 0.00 | 0.00 | 0.00 | 49 | 1004.6 |
| 20260830220502 | 97 | 96 | 0.0 | 2.0 | 0.00 | 0.00 | 0.00 | 49 | 1004.6 |
| 20260830220403 | 97 | 96 | 0.0 | 2.0 | 0.00 | 0.00 | 0.00 | 49 | 1004.6 |
| 20260830220302 | 97 | 96 | 0.0 | 2.0 | 0.00 | 0.00 | 0.00 | 49 | 1004.6 |
| 20260830220203 | 97 | 90 | 0.0 | 2.0 | 0.00 | 0.00 | 0.00 | 50 | 1004.6 |
| 20260830220058 | 97 | 90 | 0.0 | 2.0 | 0.00 | 0.00 | 0.00 | 50 | 1004.6 |
| 20260830215956 | 97 | 92 | 1.0 | 3.0 | 0.00 | 0.00 | 0.00 | 50 | 1004.6 |
| 20260830215855 | 97 | 241 | 1.0 | 3.0 | 0.00 | 0.00 | 0.00 | 50 | 1004.6 |
| 20260830215754 | 97 | 176 | 0.0 | 3.0 | 0.00 | 0.00 | 0.00 | 50 | 1004.6 |
| 20260830215653 | 97 | 176 | 0.0 | 3.0 | 0.00 | 0.00 | 0.00 | 50 | 1004.5 |
| 20260830215554 | 97 | 176 | 1.0 | 3.0 | 0.00 | 0.00 | 0.00 | 51 | 1004.6 |
| 20260830215453 | 97 | 233 | 1.0 | 3.0 | 0.00 | 0.00 | 0.00 | 51 | 1004.5 |
| 20260830215353 | 96 | 274 | 1.0 | 3.0 | 0.00 | 0.00 | 0.00 | 51 | 1004.6 |
| 20260830215254 | 96 | 274 | 1.0 | 3.0 | 0.00 | 0.00 | 0.00 | 50 | 1004.5 |
| 20260830215157 | 96 | 357 | 2.0 | 3.0 | 0.00 | 0.00 | 0.00 | 49 | 1004.6 |
| 20260830215056 | 96 | 305 | 2.0 | 3.0 | 0.00 | 0.00 | 0.00 | 49 | 1004.5 |
| 20260830214954 | 97 | 305 | 1.0 | 2.0 | 0.00 | 0.00 | 0.00 | 49 | 1004.6 |
| 20260830214855 | 97 | 161 | 1.0 | 2.0 | 0.00 | 0.00 | 0.00 | 49 | 1004.6 |
| 20260830214755 | 97 | 152 | 0.0 | 2.0 | 0.00 | 0.00 | 0.00 | 49 | 1004.6 |
| 20260830214655 | 97 | 152 | 1.0 | 2.0 | 0.00 | 0.00 | 0.00 | 49 | 1004.7 |
| 20260830214555 | 97 | 152 | 1.0 | 2.0 | 0.00 | 0.00 | 0.00 | 50 | 1004.7 |
| 20260830214453 | 97 | 141 | 1.0 | 2.0 | 0.00 | 0.00 | 0.00 | 49 | 1004.7 |
| 20260830214353 | 97 | 141 | 1.0 | 2.0 | 0.00 | 0.00 | 0.00 | 49 | 1004.7 |
| 20260830214255 | 97 | 135 | 1.0 | 2.0 | 0.00 | 0.00 | 0.00 | 50 | 1004.8 |
| 20260830214154 | 97 | 110 | 0.0 | 2.0 | 0.00 | 0.00 | 0.00 | 50 | 1004.8 |
| 20260830214054 | 97 | 110 | 0.0 | 2.0 | 0.00 | 0.00 | 0.00 | 50 | 1004.8 |
| 20260830213955 | 97 | 110 | 1.0 | 2.0 | 0.00 | 0.00 | 0.00 | 50 | 1004.8 |
| 20260830213854 | 97 | 214 | 1.0 | 2.0 | 0.00 | 0.00 | 0.00 | 49 | 1004.8 |
| 20260830213754 | 97 | 264 | 1.0 | 2.0 | 0.00 | 0.00 | 0.00 | 49 | 1004.8 |
| 20260830213653 | 97 | 329 | 1.0 | 2.0 | 0.00 | 0.00 | 0.00 | 49 | 1004.9 |
| 20260830213554 | 97 | 85 | 1.0 | 2.0 | 0.00 | 0.00 | 0.00 | 49 | 1004.8 |
| 20260830213453 | 97 | 130 | 0.0 | 3.0 | 0.00 | 0.00 | 0.00 | 50 | 1004.8 |
| 20260830213353 | 97 | 179 | 0.0 | 3.0 | 0.00 | 0.00 | 0.00 | 50 | 1004.9 |
| 20260830213253 | 97 | 179 | 0.0 | 3.0 | 0.00 | 0.00 | 0.00 | 50 | 1004.9 |
| 20260830213155 | 97 | 179 | 1.0 | 3.0 | 0.00 | 0.00 | 0.00 | 50 | 1004.9 |
| 20260830213054 | 97 | 166 | 0.0 | 3.0 | 0.00 | 0.00 | 0.00 | 52 | 1004.8 |
| 20260830212953 | 97 | 166 | 1.0 | 3.0 | 0.00 | 0.00 | 0.00 | 52 | 1004.9 |
| 20260830212852 | 97 | 234 | 1.0 | 3.0 | 0.00 | 0.00 | 0.00 | 51 | 1004.9 |
| 20260830212753 | 97 | 234 | 1.0 | 3.0 | 0.00 | 0.00 | 0.00 | 50 | 1004.9 |
| 20260830212655 | 97 | 228 | 1.0 | 3.0 | 0.00 | 0.00 | 0.00 | 50 | 1004.9 |
| 20260830212554 | 97 | 234 | 1.0 | 3.0 | 0.00 | 0.00 | 0.00 | 50 | 1004.9 |
| 20260830212453 | 97 | 161 | 0.0 | 3.0 | 0.00 | 0.00 | 0.00 | 52 | 1004.9 |
| 20260830212355 | 97 | 161 | 1.0 | 3.0 | 0.00 | 0.00 | 0.00 | 52 | 1004.9 |
| 20260830212252 | 97 | 159 | 1.0 | 3.0 | 0.00 | 0.00 | 0.00 | 52 | 1004.9 |
| 20260830212154 | 96 | 159 | 0.0 | 3.0 | 0.00 | 0.00 | 0.00 | 54 | 1004.9 |
| 20260830212053 | 96 | 159 | 0.0 | 3.0 | 0.00 | 0.00 | 0.00 | 54 | 1004.9 |
| 20260830211953 | 96 | 195 | 0.0 | 3.0 | 0.00 | 0.00 | 0.00 | 53 | 1005.0 |
| 20260830211854 | 96 | 195 | 1.0 | 3.0 | 0.00 | 0.00 | 0.00 | 53 | 1004.9 |
| 20260830211754 | 96 | 195 | 2.0 | 3.0 | 0.00 | 0.00 | 0.00 | 53 | 1005.1 |
| 20260830211653 | 97 | 209 | 1.0 | 3.0 | 0.00 | 0.00 | 0.00 | 53 | 1005.0 |
| 20260830211552 | 97 | 340 | 0.0 | 3.0 | 0.00 | 0.00 | 0.00 | 53 | 1005.0 |
| 20260830211452 | 97 | 340 | 1.0 | 3.0 | 0.00 | 0.00 | 0.00 | 53 | 1005.1 |
| 20260830211354 | 97 | 340 | 1.0 | 3.0 | 0.00 | 0.00 | 0.00 | 53 | 1005.1 |
| 20260830211252 | 96 | 204 | 1.0 | 3.0 | 0.00 | 0.00 | 0.00 | 53 | 1005.1 |
| 20260830211152 | 96 | 204 | 2.0 | 3.0 | 0.00 | 0.00 | 0.00 | 51 | 1005.1 |
| 20260830211054 | 96 | 248 | 1.0 | 3.0 | 0.00 | 0.00 | 0.00 | 51 | 1005.1 |
| 20260830210952 | 96 | 248 | 1.0 | 3.0 | 0.00 | 0.00 | 0.00 | 52 | 1005.1 |
| 20260830210854 | 96 | 264 | 1.0 | 3.0 | 0.00 | 0.00 | 0.00 | 52 | 1005.1 |